FW5963 Weather Reports


time (UTC)temp
F
wind
direction
speed
knots
gust
knots
rain 1hr
in
rain 24hr
in
rain mn
in
humidity
%
barometer
mb
20260509000007 79 260 1.7 4.3 0.00 0.00 0.00 23 1014.9
20260508235905 79 279 1.7 4.3 0.00 0.00 0.00 24 1014.9
20260508235804 79 144 1.7 3.5 0.00 0.00 0.00 23 1015.0
20260508235704 79 303 0.9 3.5 0.00 0.00 0.00 22 1015.0
20260508235604 79 248 0.9 3.5 0.00 0.00 0.00 23 1015.0
20260508235504 79 173 0.9 3.5 0.00 0.00 0.00 24 1015.2
20260508235404 79 191 0.9 3.5 0.00 0.00 0.00 22 1015.2
20260508235204 80 69 0.9 2.6 0.00 0.00 0.00 23 1015.2
20260508235006 80 88 0.9 2.6 0.00 0.00 0.00 22 1015.1
20260508234905 80 221 0.9 1.7 0.00 0.00 0.00 22 1015.1
20260508234805 79 223 0.9 4.3 0.00 0.00 0.00 22 1015.1
20260508234704 79 196 0.9 4.3 0.00 0.00 0.00 23 1015.2
20260508234504 79 208 0.9 4.3 0.00 0.00 0.00 24 1015.2
20260508234404 79 225 1.7 4.3 0.00 0.00 0.00 24 1015.1
20260508234304 78 278 1.7 4.3 0.00 0.00 0.00 23 1015.2
20260508234204 78 68 1.7 4.3 0.00 0.00 0.00 24 1015.2
20260508234005 79 85 1.7 6.1 0.00 0.00 0.00 23 1015.1
20260508233905 79 82 1.7 6.1 0.00 0.00 0.00 24 1015.2
20260508233804 79 159 1.7 6.1 0.00 0.00 0.00 22 1015.1
20260508233604 79 225 1.7 6.1 0.00 0.00 0.00 23 1015.1
20260508233504 79 143 1.7 6.1 0.00 0.00 0.00 22 1015.1
20260508233404 79 295 1.7 6.1 0.00 0.00 0.00 21 1015.1
20260508233305 79 149 1.7 6.1 0.00 0.00 0.00 21 1015.1
20260508233205 79 166 1.7 4.3 0.00 0.00 0.00 23 1015.1
20260508233104 79 227 1.7 4.3 0.00 0.00 0.00 23 1015.1
20260508232904 79 211 1.7 4.3 0.00 0.00 0.00 22 1015.1
20260508232804 79 179 1.7 3.5 0.00 0.00 0.00 23 1015.0
20260508232705 79 196 1.7 3.5 0.00 0.00 0.00 23 1015.0
20260508232604 79 265 1.7 3.5 0.00 0.00 0.00 23 1015.1
20260508232505 79 221 0.9 3.5 0.00 0.00 0.00 22 1015.2
20260508232405 79 121 0.9 3.5 0.00 0.00 0.00 24 1015.2
20260508232307 79 140 0.9 3.5 0.00 0.00 0.00 23 1015.2
20260508232205 79 158 1.7 3.5 0.00 0.00 0.00 23 1015.2
20260508232105 79 161 0.9 3.5 0.00 0.00 0.00 23 1015.2
20260508232006 79 168 0.9 3.5 0.00 0.00 0.00 23 1015.1
20260508231905 79 244 0.9 2.6 0.00 0.00 0.00 22 1015.2
20260508231805 79 236 0.9 2.6 0.00 0.00 0.00 23 1015.2
20260508231705 79 219 1.7 2.6 0.00 0.00 0.00 22 1015.2
20260508231606 79 310 1.7 5.2 0.00 0.00 0.00 22 1015.1
20260508231505 79 284 1.7 5.2 0.00 0.00 0.00 22 1015.2
20260508231306 79 250 1.7 5.2 0.00 0.00 0.00 23 1015.3
20260508231206 79 216 1.7 5.2 0.00 0.00 0.00 24 1015.2
20260508231006 79 221 1.7 5.2 0.00 0.00 0.00 23 1015.2
20260508230906 78 292 1.7 5.2 0.00 0.00 0.00 24 1015.2
20260508230706 78 288 1.7 7.0 0.00 0.00 0.00 23 1015.3
20260508230606 78 253 1.7 7.0 0.00 0.00 0.00 23 1015.2
20260508230505 78 139 1.7 7.0 0.00 0.00 0.00 23 1015.2
20260508230404 78 230 1.7 6.1 0.00 0.00 0.00 25 1015.3
20260508230105 78 123 1.7 6.1 0.00 0.00 0.00 22 1015.2
20260508230005 78 50 1.7 6.1 0.00 0.00 0.00 23 1015.3
20260508225904 78 105 1.7 6.1 0.00 0.00 0.00 24 1015.3
20260508225804 78 178 1.7 6.1 0.00 0.00 0.00 23 1015.3
20260508225704 78 207 1.7 6.1 0.00 0.00 0.00 23 1015.3
20260508225604 78 199 1.7 6.1 0.00 0.00 0.00 23 1015.3
20260508225505 78 228 0.9 6.1 0.00 0.00 0.00 24 1015.3
20260508225405 78 157 0.9 5.2 0.00 0.00 0.00 23 1015.3
20260508225307 78 44 0.9 5.2 0.00 0.00 0.00 23 1015.3
20260508225206 78 145 1.7 5.2 0.00 0.00 0.00 23 1015.3
20260508225104 78 161 1.7 5.2 0.00 0.00 0.00 24 1015.4
20260508224902 77 239 1.7 4.3 0.00 0.00 0.00 24 1015.4
20260508224844 77 221 1.7 4.3 0.00 0.00 0.00 24 1015.4
20260508224625 77 125 1.7 5.2 0.00 0.00 0.00 26 1015.4
20260508224503 77 125 2.6 5.2 0.00 0.00 0.00 23 1015.4
20260508224403 77 86 2.6 7.0 0.00 0.00 0.00 27 1015.4
20260508224330 77 91 2.6 7.0 0.00 0.00 0.00 27 1015.4
20260508224220 76 78 2.6 7.0 0.00 0.00 0.00 24 1015.4
20260508224109 77 48 1.7 7.0 0.00 0.00 0.00 24 1015.6
20260508224004 77 96 1.7 7.0 0.00 0.00 0.00 25 1015.5
20260508223902 77 42 1.7 7.0 0.00 0.00 0.00 24 1015.6
20260508223851 77 68 1.7 7.0 0.00 0.00 0.00 24 1015.6
20260508223741 77 95 1.7 7.0 0.00 0.00 0.00 26 1015.6
20260508223403 78 100 0.9 5.2 0.00 0.00 0.00 22 1015.6
20260508223304 78 100 0.9 4.3 0.00 0.00 0.00 23 1015.6
20260508223203 78 143 1.7 4.3 0.00 0.00 0.00 23 1015.7
20260508222934 78 248 0.9 4.3 0.00 0.00 0.00 25 1015.8
20260508222802 78 19 1.7 3.5 0.00 0.00 0.00 24 1015.7
20260508222734 78 331 1.7 3.5 0.00 0.00 0.00 24 1015.7
20260508222625 78 148 1.7 4.3 0.00 0.00 0.00 22 1015.8
20260508222514 78 137 1.7 4.3 0.00 0.00 0.00 24 1015.8
20260508222405 77 217 1.7 4.3 0.00 0.00 0.00 25 1015.9
20260508222306 77 315 1.7 4.3 0.00 0.00 0.00 24 1015.9
20260508222102 77 254 1.7 5.2 0.00 0.00 0.00 24 1015.9
20260508222046 77 274 1.7 5.2 0.00 0.00 0.00 24 1015.9
20260508221803 77 326 1.7 5.2 0.00 0.00 0.00 23 1016.0
20260508221703 78 256 1.7 5.2 0.00 0.00 0.00 24 1016.0
20260508221603 78 275 1.7 5.2 0.00 0.00 0.00 22 1016.0
20260508221547 78 265 1.7 5.2 0.00 0.00 0.00 22 1016.0
20260508221438 78 328 1.7 5.2 0.00 0.00 0.00 23 1016.2
20260508221303 78 91 1.7 7.0 0.00 0.00 0.00 23 1016.0
20260508221202 78 223 1.7 7.0 0.00 0.00 0.00 22 1016.1
20260508221102 78 149 2.6 7.0 0.00 0.00 0.00 25 1016.2
20260508221003 78 151 2.6 7.0 0.00 0.00 0.00 23 1016.2
20260508220902 78 218 1.7 7.0 0.00 0.00 0.00 25 1016.2
20260508220802 78 231 1.7 7.0 0.00 0.00 0.00 25 1016.3
20260508220702 78 161 1.7 7.0 0.00 0.00 0.00 24 1016.2
20260508220620 78 168 1.7 7.0 0.00 0.00 0.00 24 1016.2
20260508220510 78 217 1.7 7.0 0.00 0.00 0.00 23 1016.3
20260508220404 78 246 1.7 7.0 0.00 0.00 0.00 23 1016.4
20260508220205 78 188 1.7 4.3 0.00 0.00 0.00 25 1016.3
20260508215904 77 214 0.9 4.3 0.00 0.00 0.00 24 1016.4
20260508215804 78 276 0.9 4.3 0.00 0.00 0.00 22 1016.5
20260508215705 78 246 1.7 4.3 0.00 0.00 0.00 22 1016.4
20260508215504 78 245 0.9 5.2 0.00 0.00 0.00 25 1016.4
20260508215404 78 92 1.7 5.2 0.00 0.00 0.00 24 1016.5
20260508215306 78 156 1.7 5.2 0.00 0.00 0.00 24 1016.5
20260508215105 77 112 1.7 5.2 0.00 0.00 0.00 26 1016.5
20260508214904 77 145 1.7 5.2 0.00 0.00 0.00 23 1016.5
20260508214804 77 169 1.7 5.2 0.00 0.00 0.00 24 1016.5
20260508214705 77 244 1.7 4.3 0.00 0.00 0.00 24 1016.6
20260508214604 77 264 1.7 4.3 0.00 0.00 0.00 25 1016.6
20260508214504 77 262 1.7 4.3 0.00 0.00 0.00 23 1016.5
20260508214404 77 233 1.7 4.3 0.00 0.00 0.00 24 1016.5
20260508214304 77 310 1.7 4.3 0.00 0.00 0.00 24 1016.6
20260508214205 77 252 1.7 4.3 0.00 0.00 0.00 24 1016.5
20260508213904 77 212 1.7 5.2 0.00 0.00 0.00 24 1016.6
20260508213805 77 227 1.7 4.3 0.00 0.00 0.00 23 1016.6
20260508213604 77 114 1.7 4.3 0.00 0.00 0.00 23 1016.6
20260508213503 77 245 1.7 4.3 0.00 0.00 0.00 24 1016.8
20260508213404 77 336 1.7 4.3 0.00 0.00 0.00 24 1016.6
20260508213005 77 142 1.7 4.3 0.00 0.00 0.00 26 1016.8
20260508212804 77 129 1.7 6.1 0.00 0.00 0.00 23 1016.8
20260508212704 77 269 1.7 6.1 0.00 0.00 0.00 25 1016.8
20260508212604 77 163 1.7 6.1 0.00 0.00 0.00 26 1016.8
20260508212505 77 271 2.6 6.1 0.00 0.00 0.00 26 1016.9
20260508212404 77 222 2.6 6.1 0.00 0.00 0.00 25 1017.0
20260508212306 77 148 2.6 6.1 0.00 0.00 0.00 25 1016.9
20260508212204 77 317 2.6 6.1 0.00 0.00 0.00 25 1016.8
20260508212105 77 215 2.6 6.1 0.00 0.00 0.00 26 1017.0
20260508211804 77 150 1.7 5.2 0.00 0.00 0.00 26 1017.0
20260508211704 77 150 1.7 5.2 0.00 0.00 0.00 24 1017.0
20260508211606 77 211 1.7 5.2 0.00 0.00 0.00 25 1017.0
20260508211503 77 206 1.7 5.2 0.00 0.00 0.00 25 1017.0
20260508211404 77 213 1.7 4.3 0.00 0.00 0.00 24 1017.0
20260508211306 78 299 1.7 3.5 0.00 0.00 0.00 26 1017.0
20260508211204 78 256 1.7 3.5 0.00 0.00 0.00 23 1017.0
20260508211104 78 136 1.7 3.5 0.00 0.00 0.00 25 1017.0
20260508210905 78 142 1.7 5.2 0.00 0.00 0.00 25 1017.0
20260508210805 78 112 1.7 5.2 0.00 0.00 0.00 25 1017.0
20260508210605 77 229 1.7 5.2 0.00 0.00 0.00 25 1017.1
20260508210506 77 142 1.7 5.2 0.00 0.00 0.00 24 1017.0
20260508210406 77 223 1.7 5.2 0.00 0.00 0.00 25 1017.1
20260508210306 77 115 1.7 5.2 0.00 0.00 0.00 25 1017.1
20260508210106 77 221 0.9 3.5 0.00 0.00 0.00 28 1017.0
20260508210007 77 144 1.7 3.5 0.00 0.00 0.00 25 1017.0
20260508205905 76 237 1.7 6.1 0.00 0.00 0.00 26 1017.0
20260508205804 76 224 1.7 6.1 0.00 0.00 0.00 26 1017.0
20260508205606 76 150 2.6 7.8 0.00 0.00 0.00 26 1017.0
20260508205505 76 16 2.6 7.8 0.00 0.00 0.00 25 1017.0
20260508205404 76 250 2.6 7.8 0.00 0.00 0.00 26 1017.1
20260508205306 76 254 2.6 7.8 0.00 0.00 0.00 26 1017.0
20260508205204 76 139 2.6 7.8 0.00 0.00 0.00 24 1017.0
20260508205103 76 194 2.6 7.8 0.00 0.00 0.00 25 1017.0
20260508205005 76 126 2.6 7.8 0.00 0.00 0.00 24 1017.0
20260508204904 76 252 2.6 7.8 0.00 0.00 0.00 25 1017.1
20260508204805 76 247 1.7 7.8 0.00 0.00 0.00 23 1017.1
20260508204706 76 317 1.7 7.8 0.00 0.00 0.00 24 1017.0
20260508204606 76 249 1.7 6.1 0.00 0.00 0.00 25 1017.0
20260508204506 76 163 1.7 4.3 0.00 0.00 0.00 26 1017.0
20260508204405 77 340 1.7 4.3 0.00 0.00 0.00 24 1017.1
20260508204305 77 301 1.7 4.3 0.00 0.00 0.00 24 1017.1
20260508204210 77 303 1.7 4.3 0.00 0.00 0.00 25 1017.1
20260508204007 76 281 1.7 7.8 0.00 0.00 0.00 25 1017.2
20260508203902 76 125 2.6 7.8 0.00 0.00 0.00 26 1017.2
20260508203747 76 124 2.6 7.8 0.00 0.00 0.00 25 1017.3
20260508203637 76 265 2.6 7.8 0.00 0.00 0.00 26 1017.3
20260508203526 76 227 2.6 7.8 0.00 0.00 0.00 26 1017.1
20260508203416 76 162 2.6 7.8 0.00 0.00 0.00 24 1017.3
20260508203306 76 236 2.6 6.1 0.00 0.00 0.00 26 1017.3
20260508203203 76 229 1.7 5.2 0.00 0.00 0.00 24 1017.3
20260508203117 76 254 1.7 5.2 0.00 0.00 0.00 25 1017.2
20260508203049 76 333 1.7 5.2 0.00 0.00 0.00 25 1017.2
20260508202905 76 217 1.7 5.2 0.00 0.00 0.00 26 1017.3
20260508202843 77 134 1.7 5.2 0.00 0.00 0.00 26 1017.3
20260508202741 77 217 1.7 3.5 0.00 0.00 0.00 25 1017.1
20260508202505 76 177 2.6 8.7 0.00 0.00 0.00 24 1017.2
20260508202229 76 182 2.6 8.7 0.00 0.00 0.00 25 1017.1
20260508201932 76 134 2.6 8.7 0.00 0.00 0.00 25 1017.2
20260508201807 76 78 2.6 8.7 0.00 0.00 0.00 26 1017.1
20260508201738 76 236 2.6 9.6 0.00 0.00 0.00 26 1017.1
20260508201519 76 228 2.6 7.0 0.00 0.00 0.00 26 1017.1
20260508201407 76 198 1.7 5.2 0.00 0.00 0.00 29 1017.2
20260508201302 76 203 1.7 5.2 0.00 0.00 0.00 25 1017.2
20260508201205 76 243 1.7 5.2 0.00 0.00 0.00 25 1017.3
20260508201103 76 279 1.7 5.2 0.00 0.00 0.00 28 1017.3
20260508201003 76 235 1.7 5.2 0.00 0.00 0.00 26 1017.2
20260508200901 76 225 1.7 6.1 0.00 0.00 0.00 25 1017.3
20260508200804 76 179 1.7 4.3 0.00 0.00 0.00 29 1017.3
20260508200705 76 155 1.7 4.3 0.00 0.00 0.00 24 1017.1
20260508200603 76 252 1.7 4.3 0.00 0.00 0.00 26 1017.3
20260508200501 76 256 1.7 4.3 0.00 0.00 0.00 28 1017.3
20260508200401 76 147 1.7 5.2 0.00 0.00 0.00 25 1017.3
20260508200346 76 156 1.7 5.2 0.00 0.00 0.00 25 1017.3
20260508200008 76 238 1.7 5.2 0.00 0.00 0.00 26 1017.3
20260508195901 76 165 1.7 5.2 0.00 0.00 0.00 28 1017.4
20260508195801 76 209 1.7 5.2 0.00 0.00 0.00 28 1017.3
20260508195718 76 162 1.7 5.2 0.00 0.00 0.00 29 1017.3
20260508195602 76 107 1.7 5.2 0.00 0.00 0.00 28 1017.4
20260508195517 76 219 1.7 5.2 0.00 0.00 0.00 28 1017.4
20260508195402 76 140 1.7 5.2 0.00 0.00 0.00 28 1017.4
20260508195305 76 153 1.7 5.2 0.00 0.00 0.00 30 1017.4
20260508195203 75 240 1.7 5.2 0.00 0.00 0.00 30 1017.4
20260508195102 75 138 1.7 5.2 0.00 0.00 0.00 30 1017.4
20260508195003 75 115 1.7 5.2 0.00 0.00 0.00 29 1017.4
20260508194902 75 182 1.7 5.2 0.00 0.00 0.00 31 1017.4
20260508194842 75 151 1.7 5.2 0.00 0.00 0.00 31 1017.4
20260508194741 75 258 1.7 5.2 0.00 0.00 0.00 28 1017.4
20260508194502 75 188 1.7 5.2 0.00 0.00 0.00 28 1017.4
20260508194437 75 202 1.7 5.2 0.00 0.00 0.00 28 1017.4
20260508194221 75 153 1.7 6.1 0.00 0.00 0.00 31 1017.4
20260508194112 75 107 1.7 6.1 0.00 0.00 0.00 28 1017.4
20260508194004 75 157 1.7 5.2 0.00 0.00 0.00 28 1017.4
20260508193903 75 229 1.7 5.2 0.00 0.00 0.00 29 1017.5
20260508193804 75 257 1.7 5.2 0.00 0.00 0.00 29 1017.5
20260508193703 74 288 1.7 5.2 0.00 0.00 0.00 30 1017.4
20260508193603 74 271 1.7 5.2 0.00 0.00 0.00 32 1017.5
20260508193536 74 240 1.7 5.2 0.00 0.00 0.00 32 1017.5
20260508193427 74 285 1.7 6.1 0.00 0.00 0.00 33 1017.5
20260508193321 74 252 1.7 6.1 0.00 0.00 0.00 30 1017.5
20260508193214 74 138 1.7 6.1 0.00 0.00 0.00 31 1017.5
20260508193107 74 266 1.7 6.1 0.00 0.00 0.00 29 1017.5
20260508192913 74 348 1.7 6.1 0.00 0.00 0.00 30 1017.5
20260508192811 74 156 1.7 6.1 0.00 0.00 0.00 32 1017.5
20260508192704 74 292 1.7 6.1 0.00 0.00 0.00 29 1017.6
20260508192504 74 238 1.7 6.1 0.00 0.00 0.00 30 1017.6
20260508192405 74 138 1.7 6.1 0.00 0.00 0.00 30 1017.6
20260508192306 74 140 1.7 6.1 0.00 0.00 0.00 30 1017.6
20260508192205 74 227 1.7 6.1 0.00 0.00 0.00 30 1017.7
20260508192105 73 11 1.7 6.1 0.00 0.00 0.00 29 1017.6
20260508192005 73 210 1.7 6.1 0.00 0.00 0.00 32 1017.6
20260508191805 73 261 1.7 7.8 0.00 0.00 0.00 31 1017.6
20260508191704 73 147 2.6 7.8 0.00 0.00 0.00 31 1017.6
20260508191604 73 219 1.7 7.8 0.00 0.00 0.00 31 1017.6
20260508191505 73 217 2.6 7.8 0.00 0.00 0.00 29 1017.7
20260508191304 73 18 2.6 7.8 0.00 0.00 0.00 30 1017.7
20260508191205 73 211 2.6 7.8 0.00 0.00 0.00 31 1017.7
20260508190905 73 247 2.6 6.1 0.00 0.00 0.00 29 1017.7
20260508190805 73 236 2.6 6.1 0.00 0.00 0.00 29 1017.8
20260508190704 73 236 2.6 6.1 0.00 0.00 0.00 31 1017.7
20260508190604 73 292 2.6 6.1 0.00 0.00 0.00 30 1017.8
20260508190504 73 131 2.6 6.1 0.00 0.00 0.00 30 1017.7
20260508190304 73 271 2.6 5.2 0.00 0.00 0.00 31 1017.8
20260508190204 73 283 2.6 4.3 0.00 0.00 0.00 30 1017.8
20260508190005 73 242 2.6 5.2 0.00 0.00 0.00 32 1017.7
20260508185904 73 234 2.6 5.2 0.00 0.00 0.00 32 1017.8
20260508185804 73 151 2.6 5.2 0.00 0.00 0.00 31 1017.7
20260508185604 73 277 2.6 5.2 0.00 0.00 0.00 30 1017.7
20260508185504 73 214 1.7 5.2 0.00 0.00 0.00 32 1017.8
20260508185404 73 132 2.6 5.2 0.00 0.00 0.00 31 1017.7
20260508185306 73 171 2.6 5.2 0.00 0.00 0.00 30 1017.7
20260508185204 73 148 2.6 4.3 0.00 0.00 0.00 30 1017.7
20260508185104 73 273 2.6 5.2 0.00 0.00 0.00 30 1017.7
20260508184904 73 241 2.6 6.1 0.00 0.00 0.00 30 1017.8
20260508184804 73 243 2.6 6.1 0.00 0.00 0.00 32 1017.8
20260508184705 73 147 2.6 6.1 0.00 0.00 0.00 31 1017.8
20260508184604 73 138 2.6 6.1 0.00 0.00 0.00 32 1017.7
20260508184504 72 132 2.6 6.1 0.00 0.00 0.00 32 1017.8
20260508184405 72 257 2.6 6.1 0.00 0.00 0.00 33 1017.8
20260508184305 72 234 2.6 6.1 0.00 0.00 0.00 32 1017.8
20260508184205 72 286 2.6 6.1 0.00 0.00 0.00 31 1017.8
20260508184105 72 266 2.6 6.1 0.00 0.00 0.00 29 1017.9
20260508184006 72 290 2.6 4.3 0.00 0.00 0.00 32 1017.8
20260508183905 72 242 2.6 4.3 0.00 0.00 0.00 31 1017.8
20260508183805 72 292 2.6 5.2 0.00 0.00 0.00 31 1017.8
20260508183705 72 297 2.6 5.2 0.00 0.00 0.00 30 1017.9
20260508183605 73 246 2.6 5.2 0.00 0.00 0.00 29 1017.8
20260508183505 73 259 2.6 5.2 0.00 0.00 0.00 29 1017.9
20260508183404 73 244 2.6 5.2 0.00 0.00 0.00 31 1017.9
20260508183304 73 240 2.6 7.0 0.00 0.00 0.00 32 1017.9
20260508183205 73 217 1.7 7.0 0.00 0.00 0.00 32 1017.9
20260508183104 73 219 1.7 7.0 0.00 0.00 0.00 33 1017.9
20260508182904 73 137 1.7 7.0 0.00 0.00 0.00 32 1017.9
20260508182804 73 242 1.7 7.0 0.00 0.00 0.00 31 1018.0
20260508182704 73 250 1.7 7.0 0.00 0.00 0.00 31 1017.9
20260508182603 73 236 1.7 7.0 0.00 0.00 0.00 32 1017.9
20260508182404 73 146 1.7 5.2 0.00 0.00 0.00 33 1018.0
20260508182204 73 138 1.7 5.2 0.00 0.00 0.00 33 1018.0
20260508182005 73 195 1.7 5.2 0.00 0.00 0.00 31 1018.0
20260508181904 73 222 1.7 5.2 0.00 0.00 0.00 31 1018.0
20260508181605 73 257 1.7 6.1 0.00 0.00 0.00 33 1018.0
20260508181405 73 179 1.7 6.1 0.00 0.00 0.00 35 1018.0
20260508181205 72 191 1.7 6.1 0.00 0.00 0.00 35 1018.1
20260508181105 72 115 0.9 4.3 0.00 0.00 0.00 36 1018.0
20260508181010 73 277 1.7 4.3 0.00 0.00 0.00 34 1018.1
20260508180905 73 238 0.9 4.3 0.00 0.00 0.00 36 1018.1
20260508180805 73 155 0.9 4.3 0.00 0.00 0.00 34 1018.1
20260508180705 73 225 0.9 4.3 0.00 0.00 0.00 32 1018.0
20260508180605 73 290 0.9 4.3 0.00 0.00 0.00 34 1018.1
20260508180506 73 23 0.9 4.3 0.00 0.00 0.00 34 1018.0
20260508180405 72 125 1.7 4.3 0.00 0.00 0.00 36 1018.1
20260508180305 72 232 1.7 4.3 0.00 0.00 0.00 37 1018.1
20260508180204 72 265 1.7 4.3 0.00 0.00 0.00 37 1018.2
20260508180104 72 227 1.7 4.3 0.00 0.00 0.00 36 1018.1
20260508180006 72 159 1.7 4.3 0.00 0.00 0.00 36 1018.1
20260508175904 72 146 1.7 4.3 0.00 0.00 0.00 35 1018.2
20260508175804 72 76 1.7 4.3 0.00 0.00 0.00 34 1018.1
20260508175504 72 125 1.7 4.3 0.00 0.00 0.00 34 1018.1
20260508175404 72 148 1.7 3.5 0.00 0.00 0.00 35 1018.1
20260508175306 72 117 1.7 4.3 0.00 0.00 0.00 35 1018.1
20260508175204 72 71 0.9 3.5 0.00 0.00 0.00 35 1018.1
20260508175104 72 181 0.9 3.5 0.00 0.00 0.00 35 1018.2
20260508175005 72 143 0.9 3.5 0.00 0.00 0.00 34 1018.2
20260508174903 72 166 0.9 3.5 0.00 0.00 0.00 34 1018.2
20260508174804 72 145 0.9 2.6 0.00 0.00 0.00 34 1018.1
20260508174704 72 227 0.9 3.5 0.00 0.00 0.00 33 1018.2
20260508174603 72 171 0.9 3.5 0.00 0.00 0.00 35 1018.2
20260508174504 72 248 0.9 3.5 0.00 0.00 0.00 34 1018.2
20260508174304 72 247 0.9 3.5 0.00 0.00 0.00 34 1018.2
20260508174205 72 126 0.9 3.5 0.00 0.00 0.00 35 1018.2
20260508174104 72 148 1.7 3.5 0.00 0.00 0.00 37 1018.3
20260508174005 72 162 1.7 3.5 0.00 0.00 0.00 38 1018.2
20260508173905 72 128 1.7 3.5 0.00 0.00 0.00 36 1018.3
20260508173704 71 138 0.9 3.5 0.00 0.00 0.00 37 1018.2
20260508173604 71 144 0.9 3.5 0.00 0.00 0.00 35 1018.2
20260508173404 71 150 0.9 5.2 0.00 0.00 0.00 35 1018.2
20260508173305 71 141 0.9 5.2 0.00 0.00 0.00 38 1018.2
20260508172904 71 344 0.9 5.2 0.00 0.00 0.00 36 1018.3
20260508172804 71 148 0.9 5.2 0.00 0.00 0.00 37 1018.3
20260508172705 71 157 0.9 5.2 0.00 0.00 0.00 37 1018.3
20260508172604 71 238 0.9 4.3 0.00 0.00 0.00 38 1018.3
20260508172504 71 221 0.9 4.3 0.00 0.00 0.00 38 1018.3
20260508172307 70 139 0.9 4.3 0.00 0.00 0.00 37 1018.3
20260508172104 70 148 0.9 2.6 0.00 0.00 0.00 38 1018.2
20260508172005 70 275 0.9 2.6 0.00 0.00 0.00 36 1018.3
20260508171904 70 115 0.9 3.5 0.00 0.00 0.00 37 1018.4
20260508171704 70 56 0.9 3.5 0.00 0.00 0.00 35 1018.3
20260508171603 70 43 0.9 3.5 0.00 0.00 0.00 35 1018.3
20260508171504 70 252 0.9 3.5 0.00 0.00 0.00 38 1018.4
20260508171404 70 249 0.9 3.5 0.00 0.00 0.00 36 1018.3
20260508171305 70 267 0.9 3.5 0.00 0.00 0.00 37 1018.3
20260508171203 70 259 0.9 3.5 0.00 0.00 0.00 37 1018.4
20260508171104 70 132 0.9 4.3 0.00 0.00 0.00 39 1018.3
20260508170804 69 23 1.7 6.1 0.00 0.00 0.00 37 1018.3
20260508170604 69 247 1.7 6.1 0.00 0.00 0.00 35 1018.3
20260508170504 69 98 1.7 6.1 0.00 0.00 0.00 38 1018.4
20260508170304 69 227 1.7 6.1 0.00 0.00 0.00 38 1018.4
20260508170203 69 264 1.7 6.1 0.00 0.00 0.00 37 1018.3
20260508170007 69 274 1.7 5.2 0.00 0.00 0.00 37 1018.4
20260508165904 69 149 1.7 5.2 0.00 0.00 0.00 39 1018.3
20260508165804 69 155 1.7 5.2 0.00 0.00 0.00 39 1018.3
20260508165704 70 229 1.7 3.5 0.00 0.00 0.00 38 1018.3
20260508165604 70 239 1.7 3.5 0.00 0.00 0.00 39 1018.3
20260508165503 70 223 1.7 3.5 0.00 0.00 0.00 39 1018.2
20260508165403 70 165 1.7 3.5 0.00 0.00 0.00 41 1018.3
20260508165306 70 144 1.7 6.1 0.00 0.00 0.00 43 1018.2
20260508165203 70 224 1.7 6.1 0.00 0.00 0.00 43 1018.3
20260508165104 70 257 1.7 6.1 0.00 0.00 0.00 40 1018.2
20260508165005 70 165 0.9 6.1 0.00 0.00 0.00 43 1018.2
20260508164903 70 209 0.9 6.1 0.00 0.00 0.00 44 1018.3
20260508164805 70 150 0.9 6.1 0.00 0.00 0.00 43 1018.2
20260508164704 70 149 0.9 6.1 0.00 0.00 0.00 44 1018.2
20260508164604 70 148 1.7 6.1 0.00 0.00 0.00 44 1018.3
20260508164504 70 216 1.7 6.1 0.00 0.00 0.00 45 1018.2
20260508164403 70 246 0.9 4.3 0.00 0.00 0.00 47 1018.2
20260508164304 70 237 0.9 4.3 0.00 0.00 0.00 45 1018.3
20260508164204 70 202 0.9 4.3 0.00 0.00 0.00 47 1018.2
20260508164103 70 244 0.9 4.3 0.00 0.00 0.00 49 1018.3
20260508164004 70 243 0.9 4.3 0.00 0.00 0.00 47 1018.2
20260508163904 70 133 0.9 4.3 0.00 0.00 0.00 49 1018.2
20260508163804 70 235 0.9 4.3 0.00 0.00 0.00 47 1018.2
20260508163703 70 263 0.9 4.3 0.00 0.00 0.00 48 1018.2
20260508163603 70 241 0.9 4.3 0.00 0.00 0.00 45 1018.2
20260508163403 70 219 0.9 4.3 0.00 0.00 0.00 47 1018.2
20260508163204 70 158 0.9 4.3 0.00 0.00 0.00 46 1018.2
20260508163103 70 128 0.9 2.6 0.00 0.00 0.00 47 1018.1
20260508163005 70 196 0.9 2.6 0.00 0.00 0.00 47 1018.1
20260508162903 70 163 0.0 2.6 0.00 0.00 0.00 47 1018.0
20260508162804 70 117 0.9 2.6 0.00 0.00 0.00 45 1018.1
20260508162703 70 140 0.9 2.6 0.00 0.00 0.00 46 1018.0
20260508162603 70 207 0.9 2.6 0.00 0.00 0.00 46 1018.0
20260508162503 70 170 0.9 2.6 0.00 0.00 0.00 46 1018.0
20260508162403 70 241 0.0 2.6 0.00 0.00 0.00 47 1017.9
20260508162306 70 200 0.0 2.6 0.00 0.00 0.00 46 1018.0
20260508162204 70 221 0.0 2.6 0.00 0.00 0.00 47 1018.1
20260508162104 70 261 0.9 2.6 0.00 0.00 0.00 48 1018.1
20260508162004 70 263 0.9 2.6 0.00 0.00 0.00 47 1018.0
20260508161904 70 279 0.9 2.6 0.00 0.00 0.00 49 1018.0
20260508161703 69 247 0.9 2.6 0.00 0.00 0.00 48 1018.0
20260508161604 69 119 0.9 2.6 0.00 0.00 0.00 47 1018.1
20260508161504 69 134 0.9 2.6 0.00 0.00 0.00 49 1018.0
20260508161403 69 142 0.9 2.6 0.00 0.00 0.00 49 1018.0
20260508161304 68 142 0.9 2.6 0.00 0.00 0.00 48 1018.0
20260508161104 68 248 0.9 1.7 0.00 0.00 0.00 48 1018.0
20260508161004 68 261 0.9 1.7 0.00 0.00 0.00 48 1018.0
20260508160904 68 145 0.9 1.7 0.00 0.00 0.00 47 1017.9
20260508160804 68 142 0.9 1.7 0.00 0.00 0.00 46 1018.0
20260508160704 68 154 0.9 1.7 0.00 0.00 0.00 46 1017.9
20260508160603 69 244 0.9 1.7 0.00 0.00 0.00 47 1018.0
20260508160505 69 248 0.9 1.7 0.00 0.00 0.00 49 1018.0
20260508160405 69 252 0.9 2.6 0.00 0.00 0.00 47 1018.0
20260508160006 68 247 0.9 3.5 0.00 0.00 0.00 47 1018.0
20260508155903 68 238 0.9 3.5 0.00 0.00 0.00 47 1018.0
20260508155804 68 217 0.9 3.5 0.00 0.00 0.00 48 1018.0
20260508155704 68 131 0.9 3.5 0.00 0.00 0.00 49 1018.0
20260508155603 68 238 0.9 3.5 0.00 0.00 0.00 49 1018.0
20260508155504 68 131 0.9 3.5 0.00 0.00 0.00 48 1018.0
20260508155404 68 249 0.9 3.5 0.00 0.00 0.00 48 1018.0
20260508155306 68 152 0.9 2.6 0.00 0.00 0.00 48 1018.0
20260508155104 68 245 0.0 1.7 0.00 0.00 0.00 47 1018.0
20260508155005 68 15 0.0 1.7 0.00 0.00 0.00 47 1018.0
20260508154904 68 243 0.0 1.7 0.00 0.00 0.00 46 1018.0
20260508154803 68 281 0.0 1.7 0.00 0.00 0.00 47 1018.0
20260508154703 68 162 0.0 1.7 0.00 0.00 0.00 47 1018.0
20260508154604 68 158 0.0 1.7 0.00 0.00 0.00 47 1018.0
20260508154504 67 180 0.0 1.7 0.00 0.00 0.00 48 1018.0
20260508154304 67 110 0.0 1.7 0.00 0.00 0.00 46 1018.0
20260508154203 68 138 0.0 1.7 0.00 0.00 0.00 46 1017.9
20260508154104 68 266 0.0 1.7 0.00 0.00 0.00 46 1018.0
20260508154006 68 250 0.0 1.7 0.00 0.00 0.00 46 1018.0
20260508153904 68 152 0.0 1.7 0.00 0.00 0.00 48 1017.9
20260508153805 67 152 0.0 1.7 0.00 0.00 0.00 48 1018.0
20260508153704 67 152 0.0 1.7 0.00 0.00 0.00 48 1018.0
20260508153605 67 171 0.0 1.7 0.00 0.00 0.00 47 1018.0
20260508153503 67 59 0.0 1.7 0.00 0.00 0.00 47 1017.9
20260508153304 67 58 0.0 1.7 0.00 0.00 0.00 47 1017.9
20260508153204 67 99 0.0 0.9 0.00 0.00 0.00 47 1017.9
20260508153104 67 99 0.0 0.9 0.00 0.00 0.00 48 1017.9
20260508153005 67 99 0.0 0.9 0.00 0.00 0.00 47 1017.9
20260508152911 67 99 0.0 0.9 0.00 0.00 0.00 49 1017.8
20260508152704 66 99 0.0 1.7 0.00 0.00 0.00 49 1017.9
20260508152604 66 99 0.0 1.7 0.00 0.00 0.00 50 1017.9
20260508152504 66 95 0.0 1.7 0.00 0.00 0.00 49 1017.9
20260508152404 66 113 0.0 1.7 0.00 0.00 0.00 50 1017.9
20260508152204 66 109 0.0 1.7 0.00 0.00 0.00 49 1017.9
20260508152105 66 109 0.0 1.7 0.00 0.00 0.00 51 1017.9
20260508151905 66 51 0.0 1.7 0.00 0.00 0.00 49 1017.8
20260508151804 66 155 0.0 0.9 0.00 0.00 0.00 49 1017.8
20260508151705 66 155 0.0 0.9 0.00 0.00 0.00 49 1017.8
20260508151604 65 155 0.0 0.9 0.00 0.00 0.00 49 1017.8
20260508151404 65 115 0.0 0.9 0.00 0.00 0.00 51 1017.8
20260508151305 65 115 0.0 0.9 0.00 0.00 0.00 51 1017.9
20260508151204 65 72 0.0 0.9 0.00 0.00 0.00 51 1017.8
20260508151104 65 72 0.0 0.0 0.00 0.00 0.00 51 1017.9
20260508151004 65 72 0.0 0.9 0.00 0.00 0.00 51 1017.9
20260508150905 65 74 0.0 0.9 0.00 0.00 0.00 51 1017.8
20260508150805 64 74 0.0 1.7 0.00 0.00 0.00 52 1017.9
20260508150704 64 74 0.0 1.7 0.00 0.00 0.00 53 1017.9
20260508150603 64 74 0.0 1.7 0.00 0.00 0.00 54 1017.8
20260508150504 64 74 0.0 1.7 0.00 0.00 0.00 53 1017.9
20260508150404 64 71 0.0 1.7 0.00 0.00 0.00 52 1017.9
20260508150304 64 71 0.9 1.7 0.00 0.00 0.00 52 1017.9
20260508150204 64 71 0.9 1.7 0.00 0.00 0.00 51 1017.7
20260508150104 64 71 0.9 1.7 0.00 0.00 0.00 53 1017.9
20260508150006 63 98 0.9 1.7 0.00 0.00 0.00 52 1017.8
20260508145904 63 116 0.0 1.7 0.00 0.00 0.00 52 1017.8
20260508145704 63 195 0.9 1.7 0.00 0.00 0.00 53 1017.7
20260508145505 63 80 0.9 1.7 0.00 0.00 0.00 53 1017.8
20260508145404 62 78 0.9 1.7 0.00 0.00 0.00 53 1017.8
20260508145306 62 88 0.9 1.7 0.00 0.00 0.00 54 1017.7
20260508145204 62 74 0.9 1.7 0.00 0.00 0.00 52 1017.7
20260508145104 62 67 0.9 1.7 0.00 0.00 0.00 52 1017.7
20260508145005 62 79 0.9 1.7 0.00 0.00 0.00 52 1017.7
20260508144903 62 80 0.9 1.7 0.00 0.00 0.00 52 1017.7
20260508144704 62 86 0.0 1.7 0.00 0.00 0.00 52 1017.7
20260508144604 62 86 0.0 1.7 0.00 0.00 0.00 51 1017.7
20260508144504 62 88 0.0 1.7 0.00 0.00 0.00 52 1017.7
20260508144104 62 84 0.0 0.9 0.00 0.00 0.00 52 1017.7
20260508144005 62 84 0.0 0.0 0.00 0.00 0.00 53 1017.7
20260508143903 61 84 0.0 0.0 0.00 0.00 0.00 53 1017.6
20260508143804 61 84 0.0 0.0 0.00 0.00 0.00 53 1017.6
20260508143604 61 84 0.0 0.0 0.00 0.00 0.00 50 1017.6
20260508143504 62 84 0.0 0.0 0.00 0.00 0.00 51 1017.6
20260508143404 61 91 0.0 0.0 0.00 0.00 0.00 53 1017.6
20260508143304 61 91 0.0 0.0 0.00 0.00 0.00 52 1017.6
20260508143104 61 91 0.0 0.9 0.00 0.00 0.00 52 1017.6
20260508143005 61 91 0.0 0.9 0.00 0.00 0.00 54 1017.6
20260508142904 61 91 0.0 0.9 0.00 0.00 0.00 54 1017.6
20260508142804 61 91 0.0 0.9 0.00 0.00 0.00 53 1017.6
20260508142703 60 91 0.0 0.9 0.00 0.00 0.00 53 1017.6
20260508142604 60 90 0.0 0.9 0.00 0.00 0.00 54 1017.6
20260508142403 60 91 0.0 0.9 0.00 0.00 0.00 53 1017.6
20260508142306 60 76 0.0 0.9 0.00 0.00 0.00 52 1017.6
20260508142205 60 91 0.0 0.0 0.00 0.00 0.00 53 1017.6
20260508142104 60 92 0.0 0.0 0.00 0.00 0.00 54 1017.5
20260508142005 60 92 0.0 0.9 0.00 0.00 0.00 54 1017.6
20260508141905 60 91 0.0 0.9 0.00 0.00 0.00 53 1017.6
20260508141805 59 98 0.0 0.9 0.00 0.00 0.00 54 1017.6
20260508141705 59 98 0.0 0.9 0.00 0.00 0.00 54 1017.6
20260508141604 59 98 0.0 0.9 0.00 0.00 0.00 53 1017.5
20260508141504 59 98 0.0 0.9 0.00 0.00 0.00 53 1017.6
20260508141403 59 91 0.0 0.9 0.00 0.00 0.00 52 1017.5
20260508141303 59 91 0.0 0.9 0.00 0.00 0.00 53 1017.5
20260508141103 59 92 0.0 0.9 0.00 0.00 0.00 53 1017.5
20260508141005 59 92 0.0 0.9 0.00 0.00 0.00 52 1017.6
20260508140704 59 92 0.0 0.9 0.00 0.00 0.00 52 1017.5
20260508140604 59 92 0.0 0.9 0.00 0.00 0.00 52 1017.4
20260508140504 59 114 0.0 0.0 0.00 0.00 0.00 53 1017.4
20260508140404 59 114 0.0 0.0 0.00 0.00 0.00 52 1017.5
20260508140304 59 114 0.0 0.0 0.00 0.00 0.00 53 1017.4
20260508140206 58 115 0.0 0.0 0.00 0.00 0.00 54 1017.5
20260508140104 58 115 0.0 0.9 0.00 0.00 0.00 55 1017.5
20260508140006 58 115 0.0 0.9 0.00 0.00 0.00 55 1017.4
20260508135904 57 115 0.0 0.9 0.00 0.00 0.00 56 1017.4
20260508135804 57 115 0.0 0.9 0.00 0.00 0.00 55 1017.4
20260508135704 57 115 0.0 0.9 0.00 0.00 0.00 56 1017.5
20260508135504 57 115 0.0 0.9 0.00 0.00 0.00 57 1017.5
20260508135205 57 114 0.0 0.9 0.00 0.00 0.00 55 1017.4
20260508135104 56 114 0.0 0.9 0.00 0.00 0.00 55 1017.4
20260508135006 56 114 0.0 0.9 0.00 0.00 0.00 54 1017.4
20260508134904 56 114 0.0 0.9 0.00 0.00 0.00 56 1017.4
20260508134804 56 114 0.0 0.9 0.00 0.00 0.00 57 1017.3
20260508134704 56 114 0.0 0.9 0.00 0.00 0.00 56 1017.3
20260508134504 56 114 0.0 0.9 0.00 0.00 0.00 57 1017.3
20260508134403 56 114 0.0 0.9 0.00 0.00 0.00 58 1017.3
20260508134304 56 114 0.0 0.9 0.00 0.00 0.00 57 1017.3
20260508134204 56 114 0.0 0.9 0.00 0.00 0.00 55 1017.2
20260508134104 55 90 0.0 0.9 0.00 0.00 0.00 55 1017.1
20260508134004 55 84 0.0 0.9 0.00 0.00 0.00 56 1017.3
20260508133704 55 84 0.0 0.9 0.00 0.00 0.00 56 1017.1
20260508133503 55 84 0.0 0.0 0.00 0.00 0.00 59 1017.1
20260508133403 55 84 0.0 0.0 0.00 0.00 0.00 60 1017.1
20260508133204 54 84 0.0 0.0 0.00 0.00 0.00 59 1017.1
20260508133104 54 84 0.0 0.0 0.00 0.00 0.00 59 1017.2
20260508133004 54 84 0.0 0.0 0.00 0.00 0.00 59 1017.1
20260508132905 54 84 0.0 0.0 0.00 0.00 0.00 60 1017.1
20260508132804 54 84 0.0 0.0 0.00 0.00 0.00 60 1017.1
20260508132704 54 84 0.0 0.0 0.00 0.00 0.00 60 1017.1
20260508132604 53 84 0.0 0.0 0.00 0.00 0.00 59 1017.0
20260508132503 53 84 0.0 0.0 0.00 0.00 0.00 59 1017.1
20260508132306 53 84 0.0 0.0 0.00 0.00 0.00 61 1017.1
20260508132204 53 84 0.0 0.0 0.00 0.00 0.00 61 1017.0
20260508132104 52 84 0.0 0.0 0.00 0.00 0.00 60 1017.1
20260508132005 52 84 0.0 0.0 0.00 0.00 0.00 61 1017.1
20260508131803 52 84 0.0 0.0 0.00 0.00 0.00 61 1017.0
20260508131604 52 84 0.0 0.0 0.00 0.00 0.00 61 1016.9
20260508131404 52 84 0.0 0.0 0.00 0.00 0.00 60 1016.9
20260508131304 51 84 0.0 0.0 0.00 0.00 0.00 61 1017.0
20260508131205 51 84 0.0 0.0 0.00 0.00 0.00 61 1016.9
20260508131004 51 85 0.0 0.0 0.00 0.00 0.00 62 1016.8
20260508130904 51 85 0.0 0.0 0.00 0.00 0.00 63 1016.8
20260508130703 50 84 0.0 0.0 0.00 0.00 0.00 63 1016.8
20260508130603 50 85 0.0 0.0 0.00 0.00 0.00 63 1016.8
20260508130504 50 84 0.0 0.0 0.00 0.00 0.00 63 1016.8
20260508130404 50 84 0.0 0.0 0.00 0.00 0.00 64 1016.7
20260508130303 50 85 0.0 0.0 0.00 0.00 0.00 64 1016.7
20260508130203 50 84 0.0 0.9 0.00 0.00 0.00 64 1016.7
20260508130104 50 84 0.0 0.9 0.00 0.00 0.00 64 1016.7
20260508130006 50 84 0.0 0.9 0.00 0.00 0.00 64 1016.7
20260508125704 50 84 0.0 0.9 0.00 0.00 0.00 63 1016.8
20260508125604 50 84 0.0 0.9 0.00 0.00 0.00 63 1016.7
20260508125504 50 84 0.0 0.9 0.00 0.00 0.00 63 1016.6
20260508125403 50 84 0.0 0.9 0.00 0.00 0.00 62 1016.6
20260508125306 50 71 0.0 0.9 0.00 0.00 0.00 62 1016.6
20260508125204 50 69 0.0 0.9 0.00 0.00 0.00 63 1016.6
20260508125104 51 69 0.0 0.9 0.00 0.00 0.00 62 1016.6
20260508125004 51 69 0.0 0.9 0.00 0.00 0.00 62 1016.5
20260508124904 51 67 0.0 0.9 0.00 0.00 0.00 62 1016.5
20260508124804 50 67 0.0 0.9 0.00 0.00 0.00 62 1016.6
20260508124703 50 67 0.0 0.9 0.00 0.00 0.00 62 1016.5
20260508124603 50 67 0.0 0.9 0.00 0.00 0.00 63 1016.5
20260508124503 50 67 0.0 0.9 0.00 0.00 0.00 63 1016.5
20260508124403 50 67 0.0 0.9 0.00 0.00 0.00 63 1016.5
20260508124311 50 67 0.0 0.9 0.00 0.00 0.00 63 1016.5
20260508124204 50 67 0.0 0.9 0.00 0.00 0.00 63 1016.4
20260508124104 50 67 0.0 0.0 0.00 0.00 0.00 63 1016.5
20260508124004 50 67 0.0 0.9 0.00 0.00 0.00 63 1016.4
20260508123903 50 67 0.0 0.9 0.00 0.00 0.00 63 1016.5
20260508123803 50 67 0.0 0.9 0.00 0.00 0.00 63 1016.5
20260508123603 50 67 0.0 0.9 0.00 0.00 0.00 63 1016.4
20260508123503 50 67 0.0 0.9 0.00 0.00 0.00 63 1016.4
20260508123405 50 67 0.0 0.9 0.00 0.00 0.00 63 1016.4
20260508123303 50 67 0.0 0.9 0.00 0.00 0.00 63 1016.4
20260508123204 50 67 0.0 0.9 0.00 0.00 0.00 63 1016.4
20260508123104 50 67 0.0 0.9 0.00 0.00 0.00 63 1016.4
20260508123005 49 67 0.0 0.9 0.00 0.00 0.00 63 1016.3
20260508122904 49 67 0.0 0.9 0.00 0.00 0.00 63 1016.3
20260508122803 49 67 0.0 0.9 0.00 0.00 0.00 63 1016.3
20260508122703 49 67 0.0 0.9 0.00 0.00 0.00 63 1016.3
20260508122613 49 67 0.0 0.9 0.00 0.00 0.00 64 1016.4
20260508122504 49 67 0.0 0.9 0.00 0.00 0.00 64 1016.4
20260508122406 49 67 0.0 0.9 0.00 0.00 0.00 64 1016.3
20260508122204 49 67 0.0 0.9 0.00 0.00 0.00 63 1016.2
20260508122103 49 67 0.0 0.9 0.00 0.00 0.00 63 1016.3
20260508122005 49 67 0.0 0.9 0.00 0.00 0.00 63 1016.3
20260508121904 49 67 0.0 0.9 0.00 0.00 0.00 64 1016.3
20260508121803 49 67 0.0 0.9 0.00 0.00 0.00 64 1016.2
20260508121603 49 68 0.0 0.9 0.00 0.00 0.00 64 1016.3
20260508121503 49 68 0.0 0.9 0.00 0.00 0.00 64 1016.3
20260508121404 49 67 0.0 0.9 0.00 0.00 0.00 64 1016.3
20260508121303 49 67 0.0 0.9 0.00 0.00 0.00 64 1016.3
20260508121204 49 67 0.0 0.9 0.00 0.00 0.00 64 1016.3
20260508121103 49 67 0.0 0.9 0.00 0.00 0.00 64 1016.2
20260508121004 49 67 0.0 0.9 0.00 0.00 0.00 63 1016.2
20260508120703 49 67 0.0 0.9 0.00 0.00 0.00 63 1016.2
20260508120603 49 67 0.0 0.9 0.00 0.00 0.00 62 1016.2
20260508120407 50 67 0.0 0.9 0.00 0.00 0.00 62 1016.2
20260508120304 50 67 0.0 0.9 0.00 0.00 0.00 62 1016.2
20260508120104 50 67 0.0 0.9 0.00 0.00 0.00 61 1016.2
20260508115904 50 67 0.0 0.9 0.00 0.00 0.00 61 1016.0
20260508115803 50 67 0.0 0.9 0.00 0.00 0.00 61 1016.1
20260508115604 50 67 0.0 0.9 0.00 0.00 0.00 61 1016.0
20260508115504 50 68 0.0 0.9 0.00 0.00 0.00 61 1016.0
20260508115404 50 76 0.0 0.9 0.00 0.00 0.00 61 1016.0
20260508115306 50 76 0.0 0.9 0.00 0.00 0.00 62 1016.0
20260508115204 50 86 0.0 0.9 0.00 0.00 0.00 62 1015.9
20260508115004 50 88 0.0 0.0 0.00 0.00 0.00 62 1016.0
20260508114904 50 88 0.0 0.0 0.00 0.00 0.00 62 1016.0
20260508114704 50 88 0.0 0.0 0.00 0.00 0.00 61 1016.0
20260508114603 50 88 0.0 0.0 0.00 0.00 0.00 61 1016.0
20260508114503 50 88 0.0 0.0 0.00 0.00 0.00 61 1015.9
20260508114404 50 88 0.0 0.0 0.00 0.00 0.00 61 1016.1
20260508114303 50 88 0.0 0.0 0.00 0.00 0.00 61 1016.0
20260508114204 50 88 0.0 0.0 0.00 0.00 0.00 61 1016.0
20260508114104 50 88 0.0 0.0 0.00 0.00 0.00 61 1016.0
20260508113904 50 89 0.0 0.0 0.00 0.00 0.00 61 1016.0
20260508113803 50 89 0.0 0.0 0.00 0.00 0.00 61 1016.0
20260508113704 50 89 0.0 0.0 0.00 0.00 0.00 61 1015.9
20260508113604 50 89 0.0 0.0 0.00 0.00 0.00 61 1015.9
20260508113403 50 89 0.0 0.0 0.00 0.00 0.00 61 1015.9
20260508113303 50 89 0.0 0.0 0.00 0.00 0.00 61 1016.0
20260508113203 50 89 0.0 0.0 0.00 0.00 0.00 61 1015.9
20260508113005 51 89 0.0 0.0 0.00 0.00 0.00 60 1016.0
20260508112903 51 89 0.0 0.0 0.00 0.00 0.00 59 1016.0
20260508112804 51 89 0.0 0.0 0.00 0.00 0.00 59 1016.0
20260508112403 51 89 0.0 0.0 0.00 0.00 0.00 59 1016.0
20260508112306 51 89 0.0 0.0 0.00 0.00 0.00 59 1016.0
20260508112203 51 89 0.0 0.0 0.00 0.00 0.00 59 1015.9
20260508112103 51 89 0.0 0.0 0.00 0.00 0.00 59 1015.9
20260508112004 51 89 0.0 0.0 0.00 0.00 0.00 59 1016.0
20260508111802 51 88 0.0 0.0 0.00 0.00 0.00 58 1015.9
20260508111703 51 89 0.0 0.0 0.00 0.00 0.00 58 1015.9
20260508111602 51 89 0.0 0.0 0.00 0.00 0.00 58 1015.9
20260508111402 52 88 0.0 0.0 0.00 0.00 0.00 57 1015.9
20260508111303 52 89 0.0 0.0 0.00 0.00 0.00 58 1015.9
20260508111203 52 89 0.0 0.0 0.00 0.00 0.00 58 1015.9
20260508111103 52 88 0.0 0.0 0.00 0.00 0.00 57 1015.8
20260508111004 52 89 0.0 0.0 0.00 0.00 0.00 57 1016.0
20260508110903 52 89 0.0 0.0 0.00 0.00 0.00 57 1015.9
20260508110804 52 89 0.0 0.0 0.00 0.00 0.00 57 1015.9
20260508110703 52 89 0.0 0.0 0.00 0.00 0.00 57 1015.9
20260508110603 52 89 0.0 0.0 0.00 0.00 0.00 57 1015.9
20260508110504 52 89 0.0 0.0 0.00 0.00 0.00 57 1015.9
20260508110403 52 89 0.0 0.0 0.00 0.00 0.00 57 1015.9
20260508110304 52 89 0.0 0.9 0.00 0.00 0.00 57 1015.9
20260508110204 52 89 0.0 0.9 0.00 0.00 0.00 57 1016.0
20260508110104 52 89 0.0 0.9 0.00 0.00 0.00 57 1015.8
20260508105904 51 89 0.0 0.9 0.00 0.00 0.00 57 1015.9
20260508105703 51 89 0.0 0.9 0.00 0.00 0.00 57 1015.9
20260508105504 51 89 0.0 0.0 0.00 0.00 0.00 58 1015.9
20260508105305 51 88 0.0 0.0 0.00 0.00 0.00 58 1015.9
20260508105203 51 88 0.0 0.0 0.00 0.00 0.00 58 1015.9
20260508105102 51 88 0.0 0.0 0.00 0.00 0.00 58 1015.8
20260508105003 51 88 0.0 0.0 0.00 0.00 0.00 58 1015.8
20260508104902 51 88 0.0 0.0 0.00 0.00 0.00 58 1015.8
20260508104803 51 88 0.0 0.0 0.00 0.00 0.00 58 1015.9
20260508104602 51 88 0.0 0.0 0.00 0.00 0.00 58 1015.8
20260508104504 51 88 0.0 0.0 0.00 0.00 0.00 58 1015.8
20260508104403 51 88 0.0 0.0 0.00 0.00 0.00 58 1015.7
20260508104203 51 88 0.0 0.0 0.00 0.00 0.00 58 1015.8
20260508104103 51 88 0.0 0.0 0.00 0.00 0.00 58 1015.7
20260508103903 51 88 0.0 0.0 0.00 0.00 0.00 57 1015.7
20260508103803 51 88 0.0 0.0 0.00 0.00 0.00 57 1015.8
20260508103603 51 88 0.0 0.0 0.00 0.00 0.00 57 1015.7
20260508103403 51 88 0.0 0.9 0.00 0.00 0.00 57 1015.7
20260508103303 52 88 0.0 0.9 0.00 0.00 0.00 57 1015.7
20260508103204 51 88 0.0 0.9 0.00 0.00 0.00 57 1015.7
20260508103103 51 88 0.0 0.9 0.00 0.00 0.00 57 1015.7
20260508102903 51 88 0.0 0.9 0.00 0.00 0.00 57 1015.7
20260508102803 51 88 0.0 0.9 0.00 0.00 0.00 58 1015.7
20260508102603 52 88 0.0 0.9 0.00 0.00 0.00 58 1015.7
20260508102504 52 86 0.0 1.7 0.00 0.00 0.00 58 1015.7
20260508102403 52 80 0.0 1.7 0.00 0.00 0.00 57 1015.7
20260508102306 52 80 0.0 1.7 0.00 0.00 0.00 57 1015.7
20260508102202 52 89 0.0 1.7 0.00 0.00 0.00 57 1015.7
20260508101903 52 89 0.0 1.7 0.00 0.00 0.00 56 1015.7
20260508101801 52 89 0.0 1.7 0.00 0.00 0.00 57 1015.7
20260508101703 52 65 0.0 1.7 0.00 0.00 0.00 57 1015.6
20260508101503 51 66 0.0 0.9 0.00 0.00 0.00 58 1015.6
20260508101304 51 70 0.0 0.0 0.00 0.00 0.00 59 1015.6
20260508101103 51 70 0.0 0.0 0.00 0.00 0.00 60 1015.6
20260508100903 51 70 0.0 0.0 0.00 0.00 0.00 60 1015.7
20260508100803 51 70 0.0 0.0 0.00 0.00 0.00 60 1015.6
20260508100704 51 70 0.0 0.0 0.00 0.00 0.00 61 1015.6
20260508100603 51 70 0.0 0.0 0.00 0.00 0.00 61 1015.7
20260508100504 51 70 0.0 0.0 0.00 0.00 0.00 61 1015.6
20260508100403 51 70 0.0 0.0 0.00 0.00 0.00 62 1015.7
20260508100303 51 70 0.0 0.0 0.00 0.00 0.00 62 1015.6
20260508100204 50 70 0.0 0.0 0.00 0.00 0.00 62 1015.7
20260508100103 50 70 0.0 0.0 0.00 0.00 0.00 62 1015.6
20260508100005 50 71 0.0 0.0 0.00 0.00 0.00 62 1015.6
20260508095803 50 71 0.0 0.0 0.00 0.00 0.00 63 1015.6
20260508095703 50 71 0.0 0.0 0.00 0.00 0.00 63 1015.6
20260508095604 50 71 0.0 0.0 0.00 0.00 0.00 64 1015.6
20260508095403 50 71 0.0 1.7 0.00 0.00 0.00 64 1015.6
20260508095306 50 71 0.0 1.7 0.00 0.00 0.00 64 1015.7
20260508095203 50 71 0.0 1.7 0.00 0.00 0.00 64 1015.7
20260508095103 50 71 0.0 1.7 0.00 0.00 0.00 64 1015.6
20260508095004 50 71 0.0 1.7 0.00 0.00 0.00 65 1015.7
20260508094904 50 71 0.0 1.7 0.00 0.00 0.00 65 1015.6
20260508094804 50 71 0.0 1.7 0.00 0.00 0.00 65 1015.7
20260508094604 50 96 0.0 1.7 0.00 0.00 0.00 64 1015.6
20260508094503 50 78 0.0 0.9 0.00 0.00 0.00 65 1015.7
20260508094402 50 78 0.0 0.9 0.00 0.00 0.00 65 1015.7
20260508094203 50 78 0.0 0.9 0.00 0.00 0.00 65 1015.7
20260508094103 49 78 0.0 0.9 0.00 0.00 0.00 66 1015.6
20260508094004 49 78 0.0 0.9 0.00 0.00 0.00 66 1015.6
20260508093903 49 79 0.0 0.9 0.00 0.00 0.00 67 1015.6
20260508093803 49 92 0.0 0.0 0.00 0.00 0.00 67 1015.5
20260508093702 49 92 0.0 0.0 0.00 0.00 0.00 67 1015.6
20260508093602 49 92 0.0 0.0 0.00 0.00 0.00 67 1015.6
20260508093503 49 92 0.0 0.0 0.00 0.00 0.00 68 1015.6
20260508093403 49 92 0.0 0.0 0.00 0.00 0.00 68 1015.5
20260508093202 49 92 0.0 0.0 0.00 0.00 0.00 68 1015.7
20260508093004 49 92 0.0 0.0 0.00 0.00 0.00 68 1015.6
20260508092902 49 92 0.0 0.0 0.00 0.00 0.00 69 1015.6
20260508092802 48 93 0.0 0.0 0.00 0.00 0.00 69 1015.6
20260508092703 48 95 0.0 0.0 0.00 0.00 0.00 69 1015.6
20260508092603 48 95 0.0 0.0 0.00 0.00 0.00 69 1015.6
20260508092503 48 95 0.0 0.0 0.00 0.00 0.00 69 1015.6
20260508092404 48 95 0.0 0.0 0.00 0.00 0.00 68 1015.7
20260508092312 48 95 0.0 0.0 0.00 0.00 0.00 68 1015.6
20260508092204 48 95 0.0 0.0 0.00 0.00 0.00 68 1015.6
20260508092005 49 95 0.0 0.0 0.00 0.00 0.00 67 1015.7
20260508091904 49 95 0.0 0.0 0.00 0.00 0.00 67 1015.6
20260508091703 49 95 0.0 0.0 0.00 0.00 0.00 68 1015.6
20260508091604 49 95 0.0 0.0 0.00 0.00 0.00 68 1015.7
20260508091503 49 95 0.0 0.0 0.00 0.00 0.00 68 1015.6
20260508091403 49 94 0.0 0.0 0.00 0.00 0.00 68 1015.6
20260508091304 49 94 0.0 0.0 0.00 0.00 0.00 68 1015.6
20260508091104 49 94 0.0 0.0 0.00 0.00 0.00 67 1015.5
20260508090904 49 94 0.0 0.0 0.00 0.00 0.00 66 1015.6
20260508090804 49 94 0.0 0.0 0.00 0.00 0.00 66 1015.6
20260508090704 49 94 0.0 0.0 0.00 0.00 0.00 66 1015.6
20260508090604 49 94 0.0 0.0 0.00 0.00 0.00 66 1015.6
20260508090504 50 94 0.0 0.0 0.00 0.00 0.00 65 1015.6
20260508090403 50 94 0.0 0.0 0.00 0.00 0.00 65 1015.6
20260508090304 50 94 0.0 0.0 0.00 0.00 0.00 65 1015.6
20260508090204 50 94 0.0 0.0 0.00 0.00 0.00 65 1015.6
20260508090103 50 94 0.0 0.0 0.00 0.00 0.00 65 1015.6
20260508090005 50 94 0.0 0.0 0.00 0.00 0.00 65 1015.6
20260508085903 50 94 0.0 0.0 0.00 0.00 0.00 65 1015.5
20260508085802 50 94 0.0 0.0 0.00 0.00 0.00 65 1015.5
20260508085702 50 94 0.0 0.0 0.00 0.00 0.00 65 1015.5
20260508085602 50 94 0.0 0.0 0.00 0.00 0.00 65 1015.5
20260508085503 50 94 0.0 0.0 0.00 0.00 0.00 65 1015.5
20260508085403 50 94 0.0 0.0 0.00 0.00 0.00 65 1015.5
20260508085306 50 94 0.0 0.0 0.00 0.00 0.00 65 1015.5
20260508085102 50 94 0.0 0.0 0.00 0.00 0.00 65 1015.4
20260508085004 50 94 0.0 0.0 0.00 0.00 0.00 65 1015.5
20260508084902 50 94 0.0 0.0 0.00 0.00 0.00 65 1015.4
20260508084802 50 94 0.0 0.0 0.00 0.00 0.00 65 1015.5
20260508084702 50 94 0.0 0.0 0.00 0.00 0.00 66 1015.5
20260508084603 50 94 0.0 0.0 0.00 0.00 0.00 66 1015.5
20260508084503 50 94 0.0 0.0 0.00 0.00 0.00 66 1015.5
20260508084403 50 94 0.0 0.0 0.00 0.00 0.00 66 1015.6
20260508084302 50 94 0.0 0.0 0.00 0.00 0.00 65 1015.5
20260508084203 50 94 0.0 0.0 0.00 0.00 0.00 65 1015.6
20260508084102 50 94 0.0 0.0 0.00 0.00 0.00 65 1015.6
20260508084004 50 94 0.0 0.0 0.00 0.00 0.00 65 1015.6
20260508083903 50 94 0.0 0.0 0.00 0.00 0.00 65 1015.6
20260508083603 50 99 0.0 0.9 0.00 0.00 0.00 64 1015.6
20260508083506 51 99 0.0 0.9 0.00 0.00 0.00 64 1015.6
20260508083404 51 99 0.0 0.9 0.00 0.00 0.00 64 1015.6
20260508083203 51 99 0.0 1.7 0.00 0.00 0.00 64 1015.6
20260508083104 51 99 0.0 1.7 0.00 0.00 0.00 64 1015.6
20260508083005 51 99 0.0 1.7 0.00 0.00 0.00 63 1015.6
20260508082903 51 99 0.0 1.7 0.00 0.00 0.00 63 1015.6
20260508082704 51 147 0.0 1.7 0.00 0.00 0.00 63 1015.6
20260508082604 51 147 0.0 1.7 0.00 0.00 0.00 62 1015.5
20260508082504 51 159 0.0 1.7 0.00 0.00 0.00 61 1015.6
20260508082403 52 156 0.0 1.7 0.00 0.00 0.00 60 1015.6
20260508082306 52 279 0.0 0.9 0.00 0.00 0.00 59 1015.6
20260508082202 52 279 0.0 0.9 0.00 0.00 0.00 59 1015.5
20260508082102 52 279 0.0 0.9 0.00 0.00 0.00 59 1015.6
20260508081903 52 281 0.0 0.0 0.00 0.00 0.00 58 1015.5
20260508081803 53 281 0.0 0.0 0.00 0.00 0.00 58 1015.5
20260508081703 53 280 0.0 0.0 0.00 0.00 0.00 57 1015.5
20260508081602 53 280 0.0 0.0 0.00 0.00 0.00 57 1015.4
20260508081502 53 280 0.0 0.0 0.00 0.00 0.00 58 1015.4
20260508081403 53 280 0.0 0.0 0.00 0.00 0.00 58 1015.5
20260508081302 53 280 0.0 0.0 0.00 0.00 0.00 58 1015.4
20260508081202 53 280 0.0 0.0 0.00 0.00 0.00 58 1015.4
20260508081003 53 280 0.0 0.0 0.00 0.00 0.00 58 1015.4
20260508080802 53 280 0.0 0.0 0.00 0.00 0.00 57 1015.4
20260508080702 53 280 0.0 0.0 0.00 0.00 0.00 57 1015.5
20260508080602 53 280 0.0 0.0 0.00 0.00 0.00 56 1015.4
20260508080503 53 280 0.0 0.0 0.00 0.00 0.00 56 1015.5
20260508080403 53 281 0.0 0.0 0.00 0.00 0.00 56 1015.5
20260508080203 53 280 0.0 0.0 0.00 0.00 0.00 56 1015.5
20260508080005 54 280 0.0 0.9 0.00 0.00 0.00 56 1015.5
20260508075902 54 280 0.0 0.9 0.00 0.00 0.00 56 1015.5
20260508075802 54 280 0.0 0.9 0.00 0.00 0.00 56 1015.5
20260508075702 54 280 0.0 0.9 0.00 0.00 0.00 55 1015.5
20260508075602 54 280 0.0 0.9 0.00 0.00 0.00 56 1015.4
20260508075502 54 280 0.0 0.9 0.00 0.00 0.00 56 1015.5
20260508075402 54 281 0.0 0.9 0.00 0.00 0.00 56 1015.5
20260508075308 54 280 0.0 0.9 0.00 0.00 0.00 56 1015.6
20260508075203 54 280 0.0 0.9 0.00 0.00 0.00 56 1015.5
20260508075003 54 280 0.0 0.9 0.00 0.00 0.00 56 1015.5
20260508074902 54 280 0.0 0.0 0.00 0.00 0.00 55 1015.4
20260508074803 54 280 0.0 0.9 0.00 0.00 0.00 55 1015.5
20260508074702 54 280 0.0 0.9 0.00 0.00 0.00 55 1015.4
20260508074602 54 280 0.0 0.9 0.00 0.00 0.00 55 1015.5
20260508074502 54 281 0.0 0.9 0.00 0.00 0.00 55 1015.4
20260508074402 54 280 0.0 0.9 0.00 0.00 0.00 55 1015.4
20260508074203 54 280 0.0 0.9 0.00 0.00 0.00 55 1015.4
20260508074103 54 280 0.0 0.9 0.00 0.00 0.00 55 1015.3
20260508074004 54 280 0.0 0.9 0.00 0.00 0.00 56 1015.3
20260508073902 54 280 0.0 0.9 0.00 0.00 0.00 56 1015.4
20260508073802 53 280 0.0 0.9 0.00 0.00 0.00 56 1015.3
20260508073503 53 280 0.0 0.0 0.00 0.00 0.00 58 1015.4
20260508073402 53 280 0.0 0.0 0.00 0.00 0.00 58 1015.4
20260508073301 53 280 0.0 0.0 0.00 0.00 0.00 58 1015.3
20260508073202 53 280 0.0 0.0 0.00 0.00 0.00 59 1015.4
20260508073101 53 280 0.0 0.0 0.00 0.00 0.00 60 1015.4
20260508073002 52 280 0.0 0.0 0.00 0.00 0.00 60 1015.3
20260508072902 52 280 0.0 0.0 0.00 0.00 0.00 60 1015.3
20260508072802 52 280 0.0 0.0 0.00 0.00 0.00 61 1015.4
20260508072701 52 280 0.0 0.0 0.00 0.00 0.00 60 1015.4
20260508072602 52 280 0.0 0.0 0.00 0.00 0.00 61 1015.3
20260508072501 52 280 0.0 0.0 0.00 0.00 0.00 61 1015.4
20260508072403 52 280 0.0 0.0 0.00 0.00 0.00 61 1015.4
20260508072301 52 280 0.0 0.0 0.00 0.00 0.00 61 1015.4
20260508072201 52 280 0.0 0.0 0.00 0.00 0.00 60 1015.4
20260508072100 52 280 0.0 0.0 0.00 0.00 0.00 60 1015.4
20260508072003 52 280 0.0 0.0 0.00 0.00 0.00 60 1015.4
20260508071901 52 280 0.0 0.0 0.00 0.00 0.00 60 1015.4
20260508071800 53 280 0.0 0.0 0.00 0.00 0.00 60 1015.4
20260508071701 53 280 0.0 0.0 0.00 0.00 0.00 60 1015.5
20260508071601 53 280 0.0 0.0 0.00 0.00 0.00 60 1015.4
20260508071501 53 280 0.0 0.0 0.00 0.00 0.00 60 1015.4
20260508071302 53 280 0.0 0.0 0.00 0.00 0.00 59 1015.4
20260508071201 53 280 0.0 0.0 0.00 0.00 0.00 59 1015.4
20260508071101 53 280 0.0 0.0 0.00 0.00 0.00 59 1015.3
20260508071002 53 280 0.0 0.0 0.00 0.00 0.00 59 1015.4
20260508070601 53 280 0.0 0.0 0.00 0.00 0.00 59 1015.3
20260508070401 53 280 0.0 0.0 0.00 0.00 0.00 59 1015.4
20260508070302 53 280 0.0 0.0 0.00 0.00 0.00 59 1015.4
20260508070101 53 280 0.0 0.0 0.00 0.00 0.00 58 1015.4
20260508070005 54 280 0.0 0.0 0.00 0.00 0.00 58 1015.4
20260508065802 54 280 0.0 0.0 0.00 0.00 0.00 58 1015.3
20260508065602 54 280 0.0 0.0 0.00 0.00 0.00 57 1015.4
20260508065502 54 280 0.0 0.0 0.00 0.00 0.00 57 1015.4
20260508065306 54 280 0.0 0.0 0.00 0.00 0.00 57 1015.4
20260508065202 54 280 0.0 0.0 0.00 0.00 0.00 57 1015.4
20260508065058 54 280 0.0 0.0 0.00 0.00 0.00 56 1015.4
20260508064959 55 280 0.0 0.0 0.00 0.00 0.00 56 1015.3
20260508064900 55 280 0.0 0.0 0.00 0.00 0.00 55 1015.3
20260508064759 55 280 0.0 0.0 0.00 0.00 0.00 55 1015.3
20260508064600 55 280 0.0 0.0 0.00 0.00 0.00 55 1015.2
20260508064502 55 280 0.0 0.0 0.00 0.00 0.00 54 1015.3
20260508064359 55 280 0.0 0.0 0.00 0.00 0.00 54 1015.2
20260508064258 55 280 0.0 0.0 0.00 0.00 0.00 54 1015.2
20260508064158 55 280 0.0 0.0 0.00 0.00 0.00 54 1015.2
20260508064039 55 280 0.0 0.9 0.00 0.00 0.00 54 1015.2
20260508063933 55 280 0.0 0.9 0.00 0.00 0.00 54 1015.2
20260508063827 55 280 0.0 0.9 0.00 0.00 0.00 54 1015.3
20260508063720 55 280 0.0 0.9 0.00 0.00 0.00 54 1015.2
20260508063614 55 280 0.0 0.9 0.00 0.00 0.00 54 1015.2
20260508063259 56 280 0.0 0.9 0.00 0.00 0.00 54 1015.1
20260508063159 56 280 0.0 0.9 0.00 0.00 0.00 54 1015.1
20260508063124 56 280 0.0 0.9 0.00 0.00 0.00 54 1015.1
20260508063026 56 280 0.0 0.9 0.00 0.00 0.00 54 1015.1
20260508062759 56 280 0.0 0.9 0.00 0.00 0.00 55 1015.0
20260508062659 56 280 0.0 0.9 0.00 0.00 0.00 54 1015.1
20260508062559 56 280 0.0 0.9 0.00 0.00 0.00 54 1015.1
20260508062459 56 280 0.0 0.9 0.00 0.00 0.00 55 1015.1
20260508062359 55 280 0.0 0.9 0.00 0.00 0.00 55 1015.0
20260508062258 56 280 0.0 0.0 0.00 0.00 0.00 55 1015.1
20260508062201 55 280 0.0 0.0 0.00 0.00 0.00 55 1015.0
20260508062058 55 280 0.0 0.0 0.00 0.00 0.00 54 1015.1
20260508062000 56 280 0.0 0.0 0.00 0.00 0.00 54 1015.1
20260508061938 55 280 0.0 0.0 0.00 0.00 0.00 54 1015.1
20260508061658 56 280 0.0 0.0 0.00 0.00 0.00 54 1015.1
20260508061503 56 280 0.0 0.0 0.00 0.00 0.00 54 1015.1
20260508061358 56 280 0.0 0.9 0.00 0.00 0.00 54 1015.1
20260508061259 56 280 0.0 0.9 0.00 0.00 0.00 55 1015.2
20260508061158 56 280 0.0 0.9 0.00 0.00 0.00 55 1015.1
20260508061039 56 280 0.0 0.9 0.00 0.00 0.00 54 1015.2
20260508060932 56 280 0.0 0.9 0.00 0.00 0.00 54 1015.1
20260508060826 56 280 0.0 0.9 0.00 0.00 0.00 55 1015.1
20260508060721 56 280 0.0 0.9 0.00 0.00 0.00 55 1015.0
20260508060614 56 280 0.0 0.9 0.00 0.00 0.00 55 1015.1
20260508060410 56 280 0.0 0.0 0.00 0.00 0.00 55 1015.1
20260508060259 56 280 0.0 0.0 0.00 0.00 0.00 55 1015.1
20260508060203 56 280 0.0 0.9 0.00 0.00 0.00 54 1015.1
20260508060006 56 280 0.0 0.9 0.00 0.00 0.00 55 1015.1
20260508055803 56 280 0.0 0.9 0.00 0.00 0.00 54 1015.1
20260508055602 56 280 0.0 0.9 0.00 0.00 0.00 54 1015.1
20260508055403 56 280 0.0 0.9 0.00 0.00 0.00 54 1015.0
20260508055306 56 280 0.0 0.9 0.00 0.00 0.00 54 1015.1
20260508055202 56 280 0.0 0.9 0.00 0.00 0.00 54 1015.2
20260508055102 56 280 0.0 0.9 0.00 0.00 0.00 54 1015.2
20260508055004 56 280 0.0 0.9 0.00 0.00 0.00 54 1015.2
20260508054902 56 276 0.0 0.9 0.00 0.00 0.00 54 1015.2
20260508054802 56 276 0.0 0.9 0.00 0.00 0.00 54 1015.0
20260508054703 56 275 0.0 0.9 0.00 0.00 0.00 54 1015.0
20260508054402 56 276 0.0 0.9 0.00 0.00 0.00 54 1015.2
20260508054303 56 303 0.0 0.9 0.00 0.00 0.00 54 1015.1
20260508054203 56 303 0.0 0.9 0.00 0.00 0.00 54 1015.2
20260508054102 56 14 0.0 0.9 0.00 0.00 0.00 54 1015.2
20260508054004 56 14 0.0 0.9 0.00 0.00 0.00 54 1015.1
20260508053902 56 14 0.0 0.9 0.00 0.00 0.00 54 1015.2
20260508053803 56 15 0.0 0.9 0.00 0.00 0.00 54 1015.3
20260508053702 56 15 0.0 0.0 0.00 0.00 0.00 54 1015.2
20260508053603 57 15 0.0 0.0 0.00 0.00 0.00 53 1015.2
20260508053502 57 15 0.0 0.0 0.00 0.00 0.00 53 1015.2
20260508053402 57 15 0.0 0.0 0.00 0.00 0.00 53 1015.2
20260508053302 57 15 0.0 0.9 0.00 0.00 0.00 53 1015.2
20260508053202 57 15 0.0 0.9 0.00 0.00 0.00 53 1015.1
20260508053103 57 15 0.0 0.9 0.00 0.00 0.00 53 1015.2
20260508053003 57 15 0.0 0.9 0.00 0.00 0.00 52 1015.2
20260508052903 57 15 0.0 0.9 0.00 0.00 0.00 51 1015.3
20260508052802 58 15 0.0 0.9 0.00 0.00 0.00 51 1015.1
20260508052402 58 15 0.0 0.9 0.00 0.00 0.00 51 1015.2
20260508052202 58 15 0.0 0.9 0.00 0.00 0.00 50 1015.2
20260508052103 59 15 0.0 0.9 0.00 0.00 0.00 49 1015.2
20260508051903 59 15 0.0 0.9 0.00 0.00 0.00 49 1015.2
20260508051803 59 15 0.0 0.0 0.00 0.00 0.00 49 1015.1
20260508051703 59 15 0.0 0.0 0.00 0.00 0.00 47 1015.1
20260508051602 59 15 0.0 0.0 0.00 0.00 0.00 47 1015.1
20260508051403 59 15 0.0 0.0 0.00 0.00 0.00 46 1015.1
20260508051302 60 15 0.0 0.0 0.00 0.00 0.00 46 1015.0
20260508051203 60 15 0.0 0.0 0.00 0.00 0.00 46 1015.1
20260508051102 60 15 0.0 0.9 0.00 0.00 0.00 46 1015.0
20260508051004 60 15 0.0 0.9 0.00 0.00 0.00 46 1015.0
20260508050903 60 15 0.0 0.9 0.00 0.00 0.00 45 1015.0
20260508050704 60 15 0.0 0.9 0.00 0.00 0.00 45 1014.9
20260508050604 60 15 0.0 0.9 0.00 0.00 0.00 45 1014.9
20260508050503 60 15 0.0 0.9 0.00 0.00 0.00 45 1014.9
20260508050404 60 15 0.0 0.9 0.00 0.00 0.00 45 1014.8
20260508050304 60 15 0.0 0.9 0.00 0.00 0.00 45 1014.8
20260508050204 60 280 0.0 0.9 0.00 0.00 0.00 46 1014.6
20260508050005 60 275 0.0 0.9 0.00 0.00 0.00 46 1014.7
20260508045902 60 275 0.0 0.9 0.00 0.00 0.00 46 1014.6
20260508045802 60 275 0.0 0.9 0.00 0.00 0.00 46 1014.6
20260508045704 60 264 0.0 0.9 0.00 0.00 0.00 47 1014.5
20260508045604 60 257 0.0 0.9 0.00 0.00 0.00 47 1014.6
20260508045503 60 245 0.0 0.9 0.00 0.00 0.00 47 1014.5
20260508045403 60 245 0.0 0.9 0.00 0.00 0.00 47 1014.6
20260508045306 60 245 0.0 0.9 0.00 0.00 0.00 47 1014.5
20260508045203 60 245 0.0 0.9 0.00 0.00 0.00 47 1014.6
20260508045104 60 245 0.0 0.9 0.00 0.00 0.00 47 1014.6
20260508045004 60 245 0.0 0.9 0.00 0.00 0.00 47 1014.6
20260508044903 60 245 0.0 0.9 0.00 0.00 0.00 47 1014.5
20260508044703 60 245 0.0 0.0 0.00 0.00 0.00 46 1014.6
20260508044602 60 245 0.0 0.0 0.00 0.00 0.00 46 1014.6
20260508044502 60 245 0.0 0.9 0.00 0.00 0.00 47 1014.6
20260508044403 61 245 0.0 0.9 0.00 0.00 0.00 47 1014.5
20260508044302 61 245 0.0 0.9 0.00 0.00 0.00 46 1014.5
20260508044203 61 245 0.0 0.9 0.00 0.00 0.00 46 1014.5
20260508044102 61 245 0.0 0.9 0.00 0.00 0.00 46 1014.6
20260508044004 61 245 0.0 0.9 0.00 0.00 0.00 46 1014.5
20260508043903 61 245 0.0 0.9 0.00 0.00 0.00 46 1014.5
20260508043702 61 245 0.0 0.9 0.00 0.00 0.00 46 1014.5
20260508043502 61 245 0.0 0.9 0.00 0.00 0.00 46 1014.5
20260508043402 61 245 0.0 0.9 0.00 0.00 0.00 46 1014.6
20260508043302 61 245 0.0 0.9 0.00 0.00 0.00 46 1014.5
20260508043203 61 245 0.0 0.9 0.00 0.00 0.00 46 1014.5
20260508043103 61 245 0.0 0.9 0.00 0.00 0.00 46 1014.5
20260508043004 61 245 0.0 0.9 0.00 0.00 0.00 46 1014.5
20260508042902 61 245 0.0 0.9 0.00 0.00 0.00 46 1014.6
20260508042802 61 245 0.0 0.9 0.00 0.00 0.00 46 1014.5
20260508042703 61 245 0.0 0.9 0.00 0.00 0.00 46 1014.5
20260508042503 61 245 0.0 0.0 0.00 0.00 0.00 46 1014.6
20260508042403 61 245 0.0 0.0 0.00 0.00 0.00 46 1014.5
20260508042203 61 245 0.0 0.9 0.00 0.00 0.00 46 1014.5
20260508042103 61 245 0.0 0.9 0.00 0.00 0.00 46 1014.6
20260508042004 61 245 0.0 0.9 0.00 0.00 0.00 46 1014.6
20260508041904 61 245 0.0 0.9 0.00 0.00 0.00 46 1014.6
20260508041803 61 245 0.0 0.9 0.00 0.00 0.00 46 1014.6
20260508041603 61 245 0.0 0.9 0.00 0.00 0.00 46 1014.6
20260508041502 61 245 0.0 0.9 0.00 0.00 0.00 46 1014.6
20260508041303 61 245 0.0 0.9 0.00 0.00 0.00 46 1014.7
20260508041202 61 245 0.0 0.9 0.00 0.00 0.00 46 1014.6
20260508041004 61 245 0.0 0.9 0.00 0.00 0.00 46 1014.6
20260508040902 61 245 0.0 0.9 0.00 0.00 0.00 46 1014.6
20260508040803 61 245 0.0 0.9 0.00 0.00 0.00 46 1014.6
20260508040703 61 245 0.0 0.9 0.00 0.00 0.00 46 1014.6
20260508040603 60 245 0.0 0.9 0.00 0.00 0.00 47 1014.5
20260508040503 60 245 0.0 0.9 0.00 0.00 0.00 47 1014.6
20260508040403 60 245 0.0 0.9 0.00 0.00 0.00 47 1014.6
20260508040203 60 245 0.0 0.9 0.00 0.00 0.00 48 1014.6
20260508040104 59 245 0.0 0.9 0.00 0.00 0.00 48 1014.6
20260508040005 59 245 0.0 0.9 0.00 0.00 0.00 48 1014.5
20260508035902 59 244 0.0 0.0 0.00 0.00 0.00 49 1014.6
20260508035803 59 245 0.0 0.0 0.00 0.00 0.00 49 1014.6
20260508035702 59 244 0.0 0.0 0.00 0.00 0.00 48 1014.5
20260508035603 60 244 0.0 0.0 0.00 0.00 0.00 48 1014.7
20260508035502 60 245 0.0 0.0 0.00 0.00 0.00 48 1014.6
20260508035403 60 245 0.0 0.0 0.00 0.00 0.00 48 1014.6
20260508035306 60 245 0.0 0.0 0.00 0.00 0.00 47 1014.6
20260508035203 60 245 0.0 0.0 0.00 0.00 0.00 47 1014.6
20260508035003 60 244 0.0 0.0 0.00 0.00 0.00 47 1014.6
20260508034902 60 245 0.0 0.0 0.00 0.00 0.00 47 1014.6
20260508034802 60 244 0.0 0.0 0.00 0.00 0.00 47 1014.6
20260508034702 61 244 0.0 0.0 0.00 0.00 0.00 47 1014.6
20260508034302 61 245 0.0 0.0 0.00 0.00 0.00 46 1014.6
20260508034203 61 245 0.0 0.0 0.00 0.00 0.00 45 1014.6
20260508034102 61 245 0.0 0.0 0.00 0.00 0.00 46 1014.6
20260508034003 61 244 0.0 0.0 0.00 0.00 0.00 45 1014.7
20260508033902 62 244 0.0 0.0 0.00 0.00 0.00 45 1014.6
20260508033702 62 244 0.0 0.0 0.00 0.00 0.00 45 1014.5
20260508033603 62 244 0.0 0.0 0.00 0.00 0.00 45 1014.5
20260508033503 62 244 0.0 0.0 0.00 0.00 0.00 45 1014.5
20260508033402 62 244 0.0 0.0 0.00 0.00 0.00 45 1014.5
20260508033303 62 245 0.0 0.0 0.00 0.00 0.00 45 1014.5
20260508033202 62 244 0.0 0.0 0.00 0.00 0.00 45 1014.5
20260508033103 62 244 0.0 0.0 0.00 0.00 0.00 45 1014.5
20260508033003 62 244 0.0 0.0 0.00 0.00 0.00 45 1014.5
20260508032902 62 245 0.0 0.0 0.00 0.00 0.00 45 1014.4
20260508032802 62 245 0.0 0.0 0.00 0.00 0.00 45 1014.4
20260508032602 62 244 0.0 0.0 0.00 0.00 0.00 44 1014.5
20260508032503 62 244 0.0 0.0 0.00 0.00 0.00 44 1014.4
20260508032402 62 245 0.0 0.9 0.00 0.00 0.00 44 1014.5
20260508032306 62 244 0.0 0.9 0.00 0.00 0.00 43 1014.5
20260508032202 62 245 0.0 0.9 0.00 0.00 0.00 43 1014.3
20260508032103 62 244 0.0 0.9 0.00 0.00 0.00 44 1014.4
20260508032004 62 245 0.0 0.9 0.00 0.00 0.00 44 1014.4
20260508031902 62 245 0.0 0.9 0.00 0.00 0.00 44 1014.4
20260508031702 62 244 0.0 0.9 0.00 0.00 0.00 44 1014.4
20260508031602 62 244 0.0 0.9 0.00 0.00 0.00 43 1014.3
20260508031403 62 244 0.0 0.0 0.00 0.00 0.00 43 1014.3
20260508031302 62 245 0.0 0.0 0.00 0.00 0.00 42 1014.3
20260508031202 62 244 0.0 0.0 0.00 0.00 0.00 42 1014.3
20260508031102 63 244 0.0 0.0 0.00 0.00 0.00 42 1014.4
20260508030902 63 245 0.0 0.0 0.00 0.00 0.00 43 1014.3
20260508030803 63 245 0.0 0.0 0.00 0.00 0.00 43 1014.3
20260508030603 63 245 0.0 0.0 0.00 0.00 0.00 43 1014.2
20260508030503 63 244 0.0 0.0 0.00 0.00 0.00 43 1014.2
20260508030203 63 245 0.0 0.0 0.00 0.00 0.00 42 1014.2
20260508030103 64 244 0.0 0.0 0.00 0.00 0.00 42 1014.2
20260508030013 64 245 0.0 0.0 0.00 0.00 0.00 42 1014.2
20260508025903 64 245 0.0 0.0 0.00 0.00 0.00 41 1014.2
20260508025804 64 245 0.0 0.0 0.00 0.00 0.00 41 1014.2
20260508025604 65 244 0.0 0.0 0.00 0.00 0.00 40 1014.2
20260508025503 65 244 0.0 0.0 0.00 0.00 0.00 40 1014.2
20260508025305 65 244 0.0 0.0 0.00 0.00 0.00 39 1014.2
20260508025004 66 245 0.0 0.9 0.00 0.00 0.00 38 1014.2
20260508024906 66 244 0.0 0.9 0.00 0.00 0.00 38 1014.1
20260508024803 66 245 0.0 0.9 0.00 0.00 0.00 38 1014.1
20260508024702 66 244 0.0 0.9 0.00 0.00 0.00 38 1014.1
20260508024602 66 244 0.0 0.9 0.00 0.00 0.00 37 1014.1
20260508024503 66 245 0.0 0.9 0.00 0.00 0.00 37 1014.1
20260508024403 66 245 0.0 0.9 0.00 0.00 0.00 37 1014.2
20260508024304 66 245 0.0 0.0 0.00 0.00 0.00 37 1014.1
20260508024204 67 244 0.0 0.0 0.00 0.00 0.00 37 1014.1
20260508024102 67 244 0.0 0.0 0.00 0.00 0.00 37 1014.0
20260508024007 67 244 0.0 0.0 0.00 0.00 0.00 37 1014.1
20260508023902 67 244 0.0 0.0 0.00 0.00 0.00 37 1014.1
20260508023703 67 245 0.0 0.0 0.00 0.00 0.00 37 1014.1
20260508023604 67 244 0.0 0.0 0.00 0.00 0.00 37 1014.1
20260508023503 67 244 0.0 0.0 0.00 0.00 0.00 36 1014.1
20260508023402 67 244 0.0 0.0 0.00 0.00 0.00 36 1014.2
20260508023304 67 244 0.0 0.0 0.00 0.00 0.00 36 1014.0
20260508023203 68 245 0.0 0.0 0.00 0.00 0.00 35 1014.1
20260508023103 68 245 0.0 0.0 0.00 0.00 0.00 35 1014.0
20260508023005 68 244 0.0 0.0 0.00 0.00 0.00 35 1014.1
20260508022903 68 245 0.0 0.0 0.00 0.00 0.00 35 1014.1
20260508022802 68 244 0.0 0.0 0.00 0.00 0.00 35 1014.1
20260508022602 69 244 0.0 0.0 0.00 0.00 0.00 34 1014.1
20260508022502 69 244 0.0 0.0 0.00 0.00 0.00 34 1014.1
20260508022403 69 244 0.0 0.0 0.00 0.00 0.00 34 1014.2
20260508022306 69 244 0.0 0.0 0.00 0.00 0.00 33 1014.0
20260508022103 70 245 0.0 0.0 0.00 0.00 0.00 33 1014.0
20260508022003 70 244 0.0 0.0 0.00 0.00 0.00 33 1014.0
20260508021902 70 244 0.0 0.0 0.00 0.00 0.00 32 1014.0
20260508021802 70 244 0.0 0.0 0.00 0.00 0.00 32 1013.9
20260508021702 70 244 0.0 0.0 0.00 0.00 0.00 32 1014.0
20260508021603 70 244 0.0 0.9 0.00 0.00 0.00 32 1014.0
20260508021402 70 244 0.0 0.9 0.00 0.00 0.00 32 1014.0
20260508021203 71 245 0.0 0.9 0.00 0.00 0.00 32 1014.0
20260508021102 71 245 0.0 0.9 0.00 0.00 0.00 32 1013.9
20260508021003 71 245 0.0 0.9 0.00 0.00 0.00 31 1013.9
20260508020902 71 244 0.0 0.9 0.00 0.00 0.00 31 1014.0
20260508020803 71 245 0.0 0.9 0.00 0.00 0.00 31 1014.0
20260508020702 71 244 0.0 0.9 0.00 0.00 0.00 31 1014.0
20260508020503 71 244 0.0 0.9 0.00 0.00 0.00 31 1014.0
20260508020402 71 244 0.0 0.9 0.00 0.00 0.00 30 1014.0
20260508020302 72 244 0.0 0.9 0.00 0.00 0.00 31 1013.9
20260508020202 72 244 0.0 0.9 0.00 0.00 0.00 30 1014.0
20260508020004 72 244 0.0 0.9 0.00 0.00 0.00 30 1013.9
20260508015903 72 244 0.0 0.9 0.00 0.00 0.00 31 1014.1
20260508015802 72 244 0.0 0.9 0.00 0.00 0.00 31 1013.9
20260508015704 72 244 0.0 0.9 0.00 0.00 0.00 29 1013.9
20260508015602 73 244 0.0 0.9 0.00 0.00 0.00 30 1014.0
20260508015505 73 244 0.0 0.9 0.00 0.00 0.00 30 1013.9
20260508015305 73 234 0.0 0.9 0.00 0.00 0.00 30 1013.9
20260508015102 73 234 0.0 0.9 0.00 0.00 0.00 29 1013.9
20260508014902 74 221 0.0 1.7 0.00 0.00 0.00 29 1013.9
20260508014803 74 220 0.0 1.7 0.00 0.00 0.00 30 1013.9
20260508014702 74 175 0.0 1.7 0.00 0.00 0.00 29 1013.9
20260508014602 74 175 0.0 1.7 0.00 0.00 0.00 29 1014.0
20260508014402 74 148 0.9 1.7 0.00 0.00 0.00 30 1014.0
20260508014302 74 149 0.9 1.7 0.00 0.00 0.00 29 1013.9
20260508014202 74 151 0.9 1.7 0.00 0.00 0.00 30 1014.0
20260508014102 74 228 0.9 1.7 0.00 0.00 0.00 29 1014.0
20260508014003 75 244 0.0 1.7 0.00 0.00 0.00 29 1014.0
20260508013903 74 259 0.0 1.7 0.00 0.00 0.00 29 1014.0
20260508013803 74 259 0.0 1.7 0.00 0.00 0.00 29 1014.0
20260508013702 74 248 0.0 1.7 0.00 0.00 0.00 29 1014.0
20260508013603 74 248 0.0 1.7 0.00 0.00 0.00 30 1013.9
20260508013502 74 248 0.0 1.7 0.00 0.00 0.00 28 1014.0
20260508013402 74 236 0.0 1.7 0.00 0.00 0.00 29 1013.9
20260508013302 74 237 0.0 1.7 0.00 0.00 0.00 28 1014.0
20260508013102 74 236 0.9 1.7 0.00 0.00 0.00 29 1014.0
20260508013005 74 236 0.9 1.7 0.00 0.00 0.00 29 1014.0
20260508012903 75 237 0.9 1.7 0.00 0.00 0.00 28 1014.0
20260508012802 75 220 0.9 1.7 0.00 0.00 0.00 29 1014.0
20260508012702 75 220 0.9 2.6 0.00 0.00 0.00 28 1014.0
20260508012602 75 220 0.9 2.6 0.00 0.00 0.00 28 1014.0
20260508012307 75 227 0.9 3.5 0.00 0.00 0.00 28 1014.0
20260508012202 75 144 0.9 3.5 0.00 0.00 0.00 28 1014.0
20260508012102 76 232 0.9 3.5 0.00 0.00 0.00 28 1014.0
20260508012003 76 229 0.9 3.5 0.00 0.00 0.00 28 1014.0
20260508011902 76 144 0.9 3.5 0.00 0.00 0.00 27 1014.0
20260508011802 76 183 0.9 3.5 0.00 0.00 0.00 27 1014.0
20260508011702 76 153 0.9 3.5 0.00 0.00 0.00 27 1014.0
20260508011602 76 234 0.9 3.5 0.00 0.00 0.00 28 1014.0
20260508011402 77 247 0.0 1.7 0.00 0.00 0.00 28 1014.0
20260508011202 76 239 0.9 3.5 0.00 0.00 0.00 27 1014.0
20260508011102 76 239 0.9 3.5 0.00 0.00 0.00 28 1014.1
20260508011010 76 239 0.9 3.5 0.00 0.00 0.00 28 1014.0
20260508010908 76 205 0.9 3.5 0.00 0.00 0.00 29 1014.1
20260508010702 76 74 0.9 3.5 0.00 0.00 0.00 28 1014.1
20260508010602 76 74 0.9 3.5 0.00 0.00 0.00 28 1014.1
20260508010502 76 131 0.9 3.5 0.00 0.00 0.00 28 1014.1
20260508010402 77 133 0.9 3.5 0.00 0.00 0.00 27 1014.1
20260508010303 77 156 0.9 3.5 0.00 0.00 0.00 27 1014.2
20260508010202 77 266 0.9 3.5 0.00 0.00 0.00 28 1014.1
20260508010004 77 241 0.9 2.6 0.00 0.00 0.00 28 1014.2
20260508005902 77 242 0.9 2.6 0.00 0.00 0.00 27 1014.2
20260508005802 77 234 0.9 2.6 0.00 0.00 0.00 29 1014.1
20260508005702 77 173 0.9 2.6 0.00 0.00 0.00 27 1014.1
20260508005603 77 213 0.9 2.6 0.00 0.00 0.00 27 1014.1
20260508005402 77 227 0.9 2.6 0.00 0.00 0.00 28 1014.1
20260508005305 77 262 0.9 2.6 0.00 0.00 0.00 28 1014.1
20260508005202 77 242 0.9 2.6 0.00 0.00 0.00 28 1014.1
20260508005102 76 242 0.9 3.5 0.00 0.00 0.00 28 1014.1
20260508005004 76 202 0.9 3.5 0.00 0.00 0.00 27 1014.1
20260508004902 77 144 1.7 3.5 0.00 0.00 0.00 28 1014.1
20260508004802 76 160 1.7 6.1 0.00 0.00 0.00 28 1014.1
20260508004702 77 215 1.7 6.1 0.00 0.00 0.00 27 1014.2
20260508004602 77 146 1.7 6.1 0.00 0.00 0.00 28 1014.1
20260508004402 77 130 1.7 6.1 0.00 0.00 0.00 28 1014.1
20260508004302 77 222 1.7 6.1 0.00 0.00 0.00 27 1014.1
20260508004202 77 109 1.7 6.1 0.00 0.00 0.00 28 1014.1
20260508004003 77 130 1.7 6.1 0.00 0.00 0.00 27 1014.1
20260508003902 77 192 1.7 5.2 0.00 0.00 0.00 27 1014.2
20260508003802 77 159 1.7 5.2 0.00 0.00 0.00 27 1014.0
20260508003702 77 280 1.7 5.2 0.00 0.00 0.00 27 1014.1
20260508003602 77 150 1.7 3.5 0.00 0.00 0.00 27 1014.1
20260508003502 77 171 1.7 4.3 0.00 0.00 0.00 27 1014.1
20260508003302 77 147 0.9 4.3 0.00 0.00 0.00 27 1014.1
20260508003202 77 156 0.9 4.3 0.00 0.00 0.00 27 1014.0
20260508003102 77 174 0.9 4.3 0.00 0.00 0.00 27 1014.1
20260508002903 77 145 0.9 6.1 0.00 0.00 0.00 28 1014.0
20260508002802 77 98 0.9 6.1 0.00 0.00 0.00 28 1014.0
20260508002702 77 145 0.9 6.1 0.00 0.00 0.00 27 1014.1
20260508002602 77 244 0.9 6.1 0.00 0.00 0.00 29 1014.1
20260508002502 77 144 0.9 6.1 0.00 0.00 0.00 28 1014.0
20260508002402 77 202 0.9 6.1 0.00 0.00 0.00 29 1014.0
20260508002306 77 129 0.9 6.1 0.00 0.00 0.00 28 1014.0
20260508002102 77 180 0.9 6.1 0.00 0.00 0.00 28 1014.0
20260508002004 77 69 0.9 3.5 0.00 0.00 0.00 29 1014.0
20260508001902 77 152 0.9 3.5 0.00 0.00 0.00 28 1014.0
20260508001702 77 26 0.9 3.5 0.00 0.00 0.00 28 1014.0
20260508001602 76 136 0.9 3.5 0.00 0.00 0.00 28 1014.0
20260508001503 76 71 0.9 3.5 0.00 0.00 0.00 28 1014.0
20260508001202 76 146 0.9 3.5 0.00 0.00 0.00 28 1014.1
20260508001103 76 228 0.9 2.6 0.00 0.00 0.00 30 1014.1
20260508001004 76 78 0.9 2.6 0.00 0.00 0.00 29 1014.1
20260508000802 76 89 0.9 2.6 0.00 0.00 0.00 29 1014.1
20260508000703 75 73 0.9 2.6 0.00 0.00 0.00 30 1014.1
20260508000603 75 73 0.9 2.6 0.00 0.00 0.00 28 1014.2
20260508000503 75 74 0.9 2.6 0.00 0.00 0.00 29 1014.2
20260508000405 75 73 1.7 2.6 0.00 0.00 0.00 29 1014.3
20260508000305 75 65 1.7 3.5 0.00 0.00 0.00 29 1014.2
20260508000204 75 111 1.7 3.5 0.00 0.00 0.00 29 1014.2